ACA1224 EGLL-CYVR

Flight info

Callsign ACA1224
Flight time N/A
Altitude 36000
Route UMLAT T418 WELIN T420 TNT UL28 RODOL UM65 TENSO L603 BELOX DCT REMSI DCT MASOP DCT NELBO DCT GOTNA DCT DONIB DCT GOMUP/M084F340 DCT 59N020W 61N030W 61N040W 59N050W/M084F360 DCT AVUTI/N0489F360 DCT LOMTA DCT KLIPS DCT LENUT DCT 58N090W DCT MITOB/N0492F380 DCT PETMA DCT EXDEE DCT MERYT DCT BOOTH CANUC5
Aircraft B77W/H-SDE1E2E3FGHIJ2J3J4J5M1RWXY/LB1D1

Departure

Time 2026-05-03 23:04
Airport London Heathrow Airport (EGLL)

Arrival

Time N/A
Airport Vancouver International Airport (CYVR)
Time Latitude Longitude Altitude Speed Heading
2026-05-03 22:38 51.46946 -0.43918 90 ft 0 kts 91°
2026-05-03 22:54 51.46947 -0.43934 94 ft 3 kts 91°
2026-05-03 22:54 51.46947 -0.43962 91 ft 3 kts 91°
2026-05-03 22:54 51.46947 -0.43984 92 ft 0 kts 87°
2026-05-03 22:54 51.46947 -0.43990 91 ft 3 kts 91°
2026-05-03 22:55 51.46951 -0.44019 94 ft 3 kts 127°
2026-05-03 22:55 51.46965 -0.44039 91 ft 3 kts 162°
2026-05-03 22:55 51.46977 -0.44043 91 ft 0 kts 182°
2026-05-03 23:00 51.46949 -0.44047 93 ft 7 kts 186°
2026-05-03 23:01 51.46863 -0.44055 93 ft 0 kts 180°
2026-05-03 23:01 51.46859 -0.44055 93 ft 1 kts 180°
2026-05-03 23:01 51.46791 -0.44056 93 ft 17 kts 180°
2026-05-03 23:01 51.46690 -0.44055 91 ft 3 kts 179°
2026-05-03 23:02 51.46681 -0.44055 90 ft 0 kts 180°
2026-05-03 23:02 51.46680 -0.44055 90 ft 1 kts 180°
2026-05-03 23:02 51.46633 -0.44055 91 ft 17 kts 180°
2026-05-03 23:03 51.46525 -0.44063 87 ft 7 kts 200°
2026-05-03 23:03 51.46492 -0.44148 89 ft 7 kts 270°
2026-05-03 23:03 51.46493 -0.44365 90 ft 48 kts 270°
2026-05-03 23:03 51.46489 -0.45329 92 ft 127 kts 269°
2026-05-03 23:04 51.46475 -0.47159 108 ft 198 kts 270°
2026-05-03 23:04 51.46512 -0.49444 791 ft 208 kts 272°
2026-05-03 23:04 51.46641 -0.51773 1762 ft 213 kts 281°
2026-05-03 23:04 51.47200 -0.54096 2325 ft 237 kts 305°
2026-05-03 23:05 51.48251 -0.56220 3016 ft 246 kts 308°
2026-05-03 23:05 51.49294 -0.58457 3740 ft 259 kts 299°
2026-05-03 23:05 51.50021 -0.61055 4231 ft 255 kts 291°
2026-05-03 23:05 51.50735 -0.63672 4542 ft 257 kts 294°
2026-05-03 23:06 51.51558 -0.66217 4815 ft 259 kts 307°
2026-05-03 23:06 51.52988 -0.68023 5039 ft 271 kts 338°
2026-05-03 23:06 51.54859 -0.68690 5335 ft 282 kts 357°
2026-05-03 23:06 51.56846 -0.68681 5801 ft 289 kts
2026-05-03 23:07 51.58868 -0.68635 6099 ft 291 kts
2026-05-03 23:07 51.60905 -0.68622 6585 ft 292 kts 360°
2026-05-03 23:07 51.62949 -0.68613 7089 ft 296 kts 360°
2026-05-03 23:07 51.64995 -0.68600 7453 ft 299 kts 360°
2026-05-03 23:08 51.67099 -0.68581 7427 ft 303 kts 360°
2026-05-03 23:08 51.69197 -0.68558 7438 ft 300 kts 360°
2026-05-03 23:08 51.71280 -0.68535 7434 ft 298 kts 360°
2026-05-03 23:08 51.73350 -0.68511 7439 ft 297 kts 360°
2026-05-03 23:09 51.75418 -0.68487 7434 ft 298 kts 360°
2026-05-03 23:09 51.77513 -0.68465 7225 ft 303 kts 360°
2026-05-03 23:09 51.79620 -0.68510 6973 ft 302 kts 355°
2026-05-03 23:09 51.81696 -0.68803 6734 ft 298 kts 353°
2026-05-03 23:10 51.83752 -0.69163 6483 ft 294 kts 353°
2026-05-03 23:10 51.85767 -0.69528 6324 ft 286 kts 353°
2026-05-03 23:10 51.87682 -0.69881 6554 ft 275 kts 353°
2026-05-03 23:10 51.89555 -0.70226 7136 ft 268 kts 353°
2026-05-03 23:11 51.91399 -0.70562 7736 ft 265 kts 353°
2026-05-03 23:11 51.93219 -0.70887 8295 ft 261 kts 353°
2026-05-03 23:11 51.95029 -0.71202 8751 ft 262 kts 353°
2026-05-03 23:11 51.96838 -0.71509 9198 ft 261 kts 353°
2026-05-03 23:12 51.98648 -0.71809 9593 ft 262 kts 353°
2026-05-03 23:12 52.00477 -0.72107 9897 ft 267 kts 353°
2026-05-03 23:12 52.02301 -0.72685 10113 ft 270 kts 340°
2026-05-03 23:12 52.04094 -0.73651 10427 ft 272 kts 339°
2026-05-03 23:13 52.05888 -0.74643 10804 ft 273 kts 339°
2026-05-03 23:13 52.07687 -0.75646 11181 ft 274 kts 339°
2026-05-03 23:13 52.09495 -0.76658 11551 ft 275 kts 339°
2026-05-03 23:13 52.11306 -0.77667 11924 ft 276 kts 339°
2026-05-03 23:14 52.13120 -0.78676 12298 ft 276 kts 339°
2026-05-03 23:14 52.14942 -0.79684 12632 ft 278 kts 339°
2026-05-03 23:14 52.16807 -0.80717 12741 ft 291 kts 339°
2026-05-03 23:14 52.18785 -0.81820 12774 ft 307 kts 339°
2026-05-03 23:15 52.20848 -0.82976 12936 ft 321 kts 339°
2026-05-03 23:15 52.22938 -0.84332 13058 ft 334 kts 332°
2026-05-03 23:15 52.25073 -0.86054 13205 ft 350 kts 330°
2026-05-03 23:15 52.27282 -0.87935 13337 ft 366 kts 330°
2026-05-03 23:16 52.29590 -0.89925 13489 ft 383 kts 330°
2026-05-03 23:16 52.31980 -0.92001 13523 ft 392 kts 330°
2026-05-03 23:16 52.34402 -0.94114 13510 ft 394 kts 330°
2026-05-03 23:16 52.36815 -0.96223 13509 ft 393 kts 330°
2026-05-03 23:17 52.39218 -0.98327 13492 ft 392 kts 329°
2026-05-03 23:17 52.41565 -1.00581 13512 ft 389 kts 324°
2026-05-03 23:17 52.43769 -1.03173 13649 ft 392 kts 321°
2026-05-03 23:17 52.45968 -1.05850 14202 ft 395 kts 322°
2026-05-03 23:18 52.48201 -1.08508 14837 ft 396 kts 322°
2026-05-03 23:18 52.50510 -1.11028 15412 ft 400 kts 326°
2026-05-03 23:18 52.52899 -1.13424 15962 ft 404 kts 327°
2026-05-03 23:18 52.55313 -1.15828 16514 ft 407 kts 327°
2026-05-03 23:19 52.57739 -1.18262 17045 ft 411 kts 327°
2026-05-03 23:19 52.60192 -1.20739 17576 ft 415 kts 326°
2026-05-03 23:19 52.62666 -1.23245 18107 ft 419 kts 326°
2026-05-03 23:19 52.65157 -1.25774 18585 ft 422 kts 326°
2026-05-03 23:20 52.66816 -1.27459 18914 ft 424 kts 326°
2026-05-03 23:20 52.69333 -1.30019 19418 ft 426 kts 326°
2026-05-03 23:20 52.72692 -1.33436 20083 ft 429 kts 326°
2026-05-03 23:20 52.75241 -1.36031 20596 ft 432 kts 326°
2026-05-03 23:21 52.76976 -1.37797 20942 ft 433 kts 327°
2026-05-03 23:21 52.80382 -1.41271 21604 ft 435 kts 327°
2026-05-03 23:21 52.82125 -1.43051 21911 ft 437 kts 327°
2026-05-03 23:21 52.84710 -1.45696 22340 ft 440 kts 327°
2026-05-03 23:22 52.89957 -1.51075 23222 ft 446 kts 327°
2026-05-03 23:22 52.92572 -1.53760 23623 ft 448 kts 327°
2026-05-03 23:22 52.95229 -1.56494 23961 ft 451 kts 327°
2026-05-03 23:23 52.97906 -1.59254 24297 ft 454 kts 327°
2026-05-03 23:23 53.00600 -1.62034 24651 ft 457 kts 327°
2026-05-03 23:23 53.03306 -1.64831 24943 ft 460 kts 327°
2026-05-03 23:23 53.06026 -1.67646 25309 ft 462 kts 327°
2026-05-03 23:24 53.08764 -1.70489 25657 ft 464 kts 327°
2026-05-03 23:24 53.11514 -1.73352 25990 ft 466 kts 326°
2026-05-03 23:24 53.14267 -1.76224 26334 ft 468 kts 327°
2026-05-03 23:24 53.17034 -1.79114 26651 ft 470 kts 326°
2026-05-03 23:25 53.19771 -1.81977 26967 ft 472 kts 326°
2026-05-03 23:25 53.22595 -1.84933 27268 ft 474 kts 326°
2026-05-03 23:25 53.25400 -1.87845 27585 ft 476 kts 327°
2026-05-03 23:25 53.28229 -1.90582 27923 ft 477 kts 329°
2026-05-03 23:26 53.31173 -1.93319 28234 ft 479 kts 329°
2026-05-03 23:26 53.34058 -1.95984 28489 ft 481 kts 329°
2026-05-03 23:26 53.36992 -1.98716 28730 ft 483 kts 329°
2026-05-03 23:26 53.39929 -2.01483 28971 ft 485 kts 329°
2026-05-03 23:27 53.42879 -2.04288 29220 ft 487 kts 328°
2026-05-03 23:27 53.45826 -2.07104 29474 ft 488 kts 329°
2026-05-03 23:27 53.48778 -2.09931 29699 ft 489 kts 329°
2026-05-03 23:27 53.51738 -2.12766 29908 ft 490 kts 328°
2026-05-03 23:28 53.54719 -2.15625 30090 ft 492 kts 328°
2026-05-03 23:28 53.57529 -2.18731 30196 ft 490 kts 318°
2026-05-03 23:28 53.59901 -2.22832 30339 ft 487 kts 306°
2026-05-03 23:28 53.61736 -2.27591 30562 ft 484 kts 295°
2026-05-03 23:29 53.63018 -2.32800 30729 ft 480 kts 288°
2026-05-03 23:29 53.64167 -2.38090 30862 ft 482 kts 289°
2026-05-03 23:29 53.65333 -2.43408 31031 ft 482 kts 289°
2026-05-03 23:29 53.66509 -2.48706 31260 ft 482 kts 289°
2026-05-03 23:30 53.67691 -2.53975 31491 ft 480 kts 289°
2026-05-03 23:30 53.68877 -2.59225 31816 ft 477 kts 289°
2026-05-03 23:30 53.70059 -2.64450 32082 ft 476 kts 289°
2026-05-03 23:30 53.71240 -2.69672 32294 ft 475 kts 290°
2026-05-03 23:31 53.72414 -2.74875 32539 ft 473 kts 290°
2026-05-03 23:31 53.73585 -2.80081 32695 ft 474 kts 290°
2026-05-03 23:31 53.74736 -2.85212 32862 ft 474 kts 290°
2026-05-03 23:31 53.75910 -2.90461 33157 ft 471 kts 290°
2026-05-03 23:32 53.78227 -3.00862 33260 ft 475 kts 290°
2026-05-03 23:32 53.79375 -3.06033 33379 ft 475 kts 290°
2026-05-03 23:32 53.80533 -3.11267 33436 ft 477 kts 290°
2026-05-03 23:33 53.81694 -3.16527 33554 ft 477 kts 290°
2026-05-03 23:33 53.82855 -3.21796 33575 ft 479 kts 290°
2026-05-03 23:33 53.85189 -3.32431 33644 ft 482 kts 290°
2026-05-03 23:34 53.86349 -3.37739 33913 ft 479 kts 290°
2026-05-03 23:34 53.87505 -3.43037 33954 ft 481 kts 290°
2026-05-03 23:34 53.89822 -3.53716 33932 ft 485 kts 290°
2026-05-03 23:35 53.92136 -3.64494 33825 ft 485 kts 290°
2026-05-03 23:35 53.93288 -3.69874 33563 ft 486 kts 291°
2026-05-03 23:35 53.94440 -3.75268 33269 ft 487 kts 291°
2026-05-03 23:36 53.95652 -3.80627 33104 ft 485 kts 295°
2026-05-03 23:36 53.97119 -3.85759 32981 ft 481 kts 301°
2026-05-03 23:36 53.98877 -3.90594 32873 ft 478 kts 304°
2026-05-03 23:36 54.00687 -3.95331 32741 ft 477 kts 304°
2026-05-03 23:37 54.02487 -4.00052 32564 ft 476 kts 304°
2026-05-03 23:37 54.04281 -4.04801 32373 ft 477 kts 304°
2026-05-03 23:37 54.06064 -4.09570 32156 ft 478 kts 304°
2026-05-03 23:37 54.07819 -4.14296 32081 ft 479 kts 304°
2026-05-03 23:38 54.11389 -4.23961 32008 ft 483 kts 304°
2026-05-03 23:38 54.14980 -4.33705 32015 ft 487 kts 305°
2026-05-03 23:39 54.18554 -4.43565 32004 ft 489 kts 304°
2026-05-03 23:39 54.22094 -4.53525 32015 ft 490 kts 304°
2026-05-03 23:40 54.25604 -4.63433 32035 ft 489 kts 304°
2026-05-03 23:40 54.29127 -4.73395 32029 ft 488 kts 304°
2026-05-03 23:41 54.32627 -4.83323 32020 ft 486 kts 305°
2026-05-03 23:41 54.36109 -4.93236 32029 ft 485 kts 305°
2026-05-03 23:42 54.39573 -5.03140 32010 ft 484 kts 305°
2026-05-03 23:42 54.43024 -5.13047 32021 ft 482 kts 305°
2026-05-03 23:43 54.46431 -5.22863 32031 ft 481 kts 305°
2026-05-03 23:43 54.49856 -5.32747 32033 ft 480 kts 306°
2026-05-03 23:44 54.53353 -5.42524 32023 ft 479 kts 306°
2026-05-03 23:44 54.56853 -5.52314 32038 ft 480 kts 306°
2026-05-03 23:45 54.60590 -5.61788 32034 ft 475 kts 314°
2026-05-03 23:45 54.65105 -5.70036 32026 ft 471 kts 319°
2026-05-03 23:46 54.69675 -5.78116 32012 ft 470 kts 318°
2026-05-03 23:46 54.74184 -5.86185 32022 ft 468 kts 318°
2026-05-03 23:47 54.78686 -5.94320 32028 ft 467 kts 318°
2026-05-03 23:47 54.83170 -6.02463 32031 ft 467 kts 318°
2026-05-03 23:48 54.87644 -6.10620 32051 ft 466 kts 317°
2026-05-03 23:48 54.92102 -6.18770 32037 ft 465 kts 317°
2026-05-03 23:49 54.96549 -6.26927 32048 ft 464 kts 317°
2026-05-03 23:49 55.00980 -6.35082 32056 ft 463 kts 317°
2026-05-03 23:50 55.04653 -6.41866 32058 ft 463 kts 317°
2026-05-03 23:50 55.09823 -6.51443 32056 ft 463 kts 317°
2026-05-03 23:51 55.14225 -6.59631 32040 ft 461 kts 317°
2026-05-03 23:51 55.18572 -6.67745 32057 ft 459 kts 317°
2026-05-03 23:52 55.22930 -6.75908 32056 ft 458 kts 317°
2026-05-03 23:52 55.27276 -6.84073 32061 ft 457 kts 317°
2026-05-03 23:53 55.31611 -6.92247 32065 ft 457 kts 317°
2026-05-03 23:53 55.35941 -7.00439 32072 ft 457 kts 316°
2026-05-03 23:54 55.40259 -7.08639 32065 ft 457 kts 316°
2026-05-03 23:54 55.44563 -7.16838 32073 ft 456 kts 316°
2026-05-03 23:55 55.48835 -7.25006 32055 ft 456 kts 316°
2026-05-03 23:55 55.53128 -7.33242 32069 ft 456 kts 316°
2026-05-03 23:56 55.57421 -7.41506 32076 ft 456 kts 316°
2026-05-03 23:56 55.61709 -7.49790 32076 ft 456 kts 316°
2026-05-03 23:57 55.65988 -7.58088 32071 ft 456 kts 316°
2026-05-03 23:57 55.70265 -7.66405 32076 ft 456 kts 316°
2026-05-03 23:58 55.74667 -7.74483 32082 ft 454 kts 319°
2026-05-03 23:58 55.79191 -7.82209 32079 ft 453 kts 320°
2026-05-03 23:59 55.83741 -7.89973 32080 ft 453 kts 320°
2026-05-03 23:59 55.88277 -7.97785 32077 ft 453 kts 319°
2026-05-04 00:00 55.92798 -8.05626 32090 ft 454 kts 319°
2026-05-04 00:00 55.97314 -8.13492 32088 ft 454 kts 319°
2026-05-04 00:01 56.01834 -8.21390 32090 ft 455 kts 319°
2026-05-04 00:01 56.06356 -8.29319 32091 ft 454 kts 319°
2026-05-04 00:02 56.10836 -8.37202 32085 ft 454 kts 319°
2026-05-04 00:02 56.15325 -8.45128 32085 ft 453 kts 319°
2026-05-04 00:03 56.19810 -8.53073 32089 ft 452 kts 319°
2026-05-04 00:03 56.24279 -8.61019 32071 ft 452 kts 319°
2026-05-04 00:04 56.28741 -8.68977 32104 ft 451 kts 318°
2026-05-04 00:04 56.33194 -8.76949 32081 ft 451 kts 318°
2026-05-04 00:05 56.37620 -8.84900 32085 ft 451 kts 318°
2026-05-04 00:05 56.42062 -8.92908 32084 ft 451 kts 318°
2026-05-04 00:06 56.46498 -9.00933 32101 ft 451 kts 318°
2026-05-04 00:06 56.50929 -9.08975 32087 ft 451 kts 318°
2026-05-04 00:07 56.55357 -9.17042 32084 ft 450 kts 317°
2026-05-04 00:07 56.59736 -9.25049 32088 ft 449 kts 317°
2026-05-04 00:08 56.64133 -9.33115 32071 ft 448 kts 317°
2026-05-04 00:08 56.68513 -9.41178 32096 ft 448 kts 317°
2026-05-04 00:09 56.72860 -9.49210 32091 ft 449 kts 317°
2026-05-04 00:09 56.77242 -9.57331 32097 ft 449 kts 317°
2026-05-04 00:10 56.81623 -9.65486 32100 ft 449 kts 317°
2026-05-04 00:10 56.85256 -9.72267 32079 ft 449 kts 317°
2026-05-04 00:11 56.90330 -9.81773 32078 ft 449 kts 317°
2026-05-04 00:11 56.94676 -9.89943 32094 ft 448 kts 317°
2026-05-04 00:12 56.98207 -9.97015 32078 ft 450 kts 310°
2026-05-04 00:12 57.01643 -10.06572 32059 ft 453 kts 302°
2026-05-04 00:13 57.04353 -10.17040 32083 ft 454 kts 298°
2026-05-04 00:13 57.06951 -10.27610 32090 ft 454 kts 298°
2026-05-04 00:14 57.09556 -10.38193 32090 ft 454 kts 298°
2026-05-04 00:14 57.12167 -10.48773 32092 ft 454 kts 298°
2026-05-04 00:15 57.14763 -10.59311 32090 ft 455 kts 298°
2026-05-04 00:15 57.17369 -10.69934 32091 ft 455 kts 298°
2026-05-04 00:16 57.19968 -10.80579 32098 ft 455 kts 297°
2026-05-04 00:16 57.22559 -10.91249 32091 ft 456 kts 297°
2026-05-04 00:17 57.25143 -11.01945 32087 ft 456 kts 297°
2026-05-04 00:17 57.27720 -11.12664 32087 ft 456 kts 297°
2026-05-04 00:18 57.30268 -11.23313 32086 ft 455 kts 297°
2026-05-04 00:18 57.32818 -11.34025 32086 ft 455 kts 297°
2026-05-04 00:19 57.35359 -11.44749 32074 ft 455 kts 297°
2026-05-04 00:19 57.37892 -11.55495 32087 ft 455 kts 297°
2026-05-04 00:20 57.40420 -11.66272 32093 ft 455 kts 296°
2026-05-04 00:20 57.42939 -11.77067 32081 ft 455 kts 296°
2026-05-04 00:21 57.45444 -11.87858 32086 ft 454 kts 296°
2026-05-04 00:21 57.47933 -11.98629 32077 ft 453 kts 296°
2026-05-04 00:22 57.50407 -12.09394 32075 ft 453 kts 296°
2026-05-04 00:22 57.52858 -12.20106 32078 ft 453 kts 296°
2026-05-04 00:23 57.55317 -12.30911 32079 ft 454 kts 296°
2026-05-04 00:23 57.57777 -12.41779 32077 ft 455 kts 296°
2026-05-04 00:24 57.60227 -12.52657 32083 ft 455 kts 295°
2026-05-04 00:24 57.62652 -12.63480 32070 ft 454 kts 295°
2026-05-04 00:25 57.65069 -12.74328 32071 ft 452 kts 295°
2026-05-04 00:25 57.67472 -12.85162 32071 ft 450 kts 295°
2026-05-04 00:26 57.69860 -12.95985 32073 ft 449 kts 295°
2026-05-04 00:26 57.72233 -13.06797 32071 ft 449 kts 295°
2026-05-04 00:27 57.74601 -13.17643 32072 ft 450 kts 295°
2026-05-04 00:27 57.76960 -13.28504 32075 ft 451 kts 295°
2026-05-04 00:28 57.79314 -13.39398 32078 ft 451 kts 295°
2026-05-04 00:28 57.81646 -13.50247 32053 ft 451 kts 294°
2026-05-04 00:29 57.83978 -13.61155 32067 ft 450 kts 294°
2026-05-04 00:29 57.86302 -13.72086 32066 ft 450 kts 294°
2026-05-04 00:30 57.88616 -13.83028 32071 ft 451 kts 294°
2026-05-04 00:30 57.90926 -13.94005 32072 ft 451 kts 294°
2026-05-04 00:31 57.93224 -14.04986 32062 ft 452 kts 294°
2026-05-04 00:31 57.95516 -14.15999 32063 ft 452 kts 294°
2026-05-04 00:32 57.97799 -14.27027 32061 ft 452 kts 293°
2026-05-04 00:32 58.00081 -14.38112 32063 ft 454 kts 293°
2026-05-04 00:33 58.03478 -14.54728 32060 ft 456 kts 293°
2026-05-04 00:34 58.05748 -14.65907 32065 ft 456 kts 293°
2026-05-04 00:34 58.08014 -14.77134 32062 ft 457 kts 293°
2026-05-04 00:35 58.10269 -14.88363 32061 ft 456 kts 292°
2026-05-04 00:35 58.12514 -14.99606 32063 ft 456 kts 292°
2026-05-04 00:36 58.14729 -15.10767 32074 ft 456 kts 292°
2026-05-04 00:36 58.16954 -15.22040 32069 ft 456 kts 292°
2026-05-04 00:37 58.19164 -15.33303 32069 ft 456 kts 292°
2026-05-04 00:37 58.21365 -15.44580 32066 ft 455 kts 291°
2026-05-04 00:38 58.23554 -15.55862 32071 ft 455 kts 291°
2026-05-04 00:38 58.25729 -15.67136 32055 ft 455 kts 291°
2026-05-04 00:39 58.27896 -15.78437 32073 ft 455 kts 291°
2026-05-04 00:39 58.30054 -15.89755 32066 ft 456 kts 291°
2026-05-04 00:40 58.32193 -16.01041 32091 ft 456 kts 290°
2026-05-04 00:40 58.34336 -16.12409 32071 ft 456 kts 290°
2026-05-04 00:41 58.36462 -16.23765 32056 ft 455 kts 290°
2026-05-04 00:41 58.38577 -16.35123 32065 ft 454 kts 290°
2026-05-04 00:42 58.40677 -16.46465 32065 ft 454 kts 290°
2026-05-04 00:42 58.42772 -16.57849 32066 ft 455 kts 290°
2026-05-04 00:43 58.44858 -16.69256 32069 ft 456 kts 289°
2026-05-04 00:43 58.46939 -16.80703 32069 ft 457 kts 289°
2026-05-04 00:44 58.49015 -16.92191 32085 ft 457 kts 289°
2026-05-04 00:44 58.51069 -17.03632 32069 ft 457 kts 289°
2026-05-04 00:45 58.53117 -17.15104 32058 ft 455 kts 289°
2026-05-04 00:45 58.55154 -17.26588 32070 ft 454 kts 288°
2026-05-04 00:46 58.57178 -17.38067 32072 ft 455 kts 288°
2026-05-04 00:46 58.59195 -17.49580 32072 ft 455 kts 288°
2026-05-04 00:47 58.61192 -17.61052 32072 ft 456 kts 288°
2026-05-04 00:47 58.63192 -17.72614 32071 ft 457 kts 288°
2026-05-04 00:48 58.65183 -17.84196 32093 ft 457 kts 288°
2026-05-04 00:48 58.67167 -17.95806 32074 ft 457 kts 287°
2026-05-04 00:49 58.69139 -18.07429 32071 ft 457 kts 287°
2026-05-04 00:49 58.71102 -18.19070 32077 ft 457 kts 287°
2026-05-04 00:50 58.73055 -18.30725 32076 ft 457 kts 287°
2026-05-04 00:50 58.74997 -18.42389 32071 ft 457 kts 287°
2026-05-04 00:51 58.76928 -18.54069 32076 ft 457 kts 287°
2026-05-04 00:51 58.78835 -18.65679 32061 ft 458 kts 286°
2026-05-04 00:52 58.80750 -18.77409 32101 ft 458 kts 286°
2026-05-04 00:52 58.82656 -18.89171 32084 ft 460 kts 286°
2026-05-04 00:53 58.84557 -19.00975 32077 ft 460 kts 286°
2026-05-04 00:53 58.86446 -19.12788 32085 ft 460 kts 286°
2026-05-04 00:54 58.88328 -19.24634 32080 ft 460 kts 286°
2026-05-04 00:54 58.90194 -19.36464 32081 ft 460 kts 285°
2026-05-04 00:55 58.92039 -19.48238 32083 ft 460 kts 285°
2026-05-04 00:55 58.93888 -19.60122 32087 ft 461 kts 285°
2026-05-04 00:56 58.95730 -19.72042 32106 ft 462 kts 285°
2026-05-04 00:56 58.97564 -19.83985 32089 ft 462 kts 285°
2026-05-04 00:57 58.99380 -19.95876 32077 ft 462 kts 285°
2026-05-04 00:57 59.01787 -20.07458 32081 ft 464 kts 294°
2026-05-04 00:58 59.04645 -20.18677 32086 ft 464 kts 294°
2026-05-04 00:58 59.07486 -20.29941 32082 ft 463 kts 294°
2026-05-04 00:59 59.09823 -20.39318 32087 ft 463 kts 294°
2026-05-04 00:59 59.12621 -20.50636 32108 ft 463 kts 294°
2026-05-04 01:00 59.13542 -20.54378 32104 ft 463 kts 293°
2026-05-04 01:01 59.20518 -20.82931 32091 ft 461 kts 293°
2026-05-04 01:02 59.23244 -20.94185 32089 ft 461 kts 293°
2026-05-04 01:02 59.25972 -21.05512 32082 ft 461 kts 293°
2026-05-04 01:03 59.28698 -21.16886 32101 ft 463 kts 292°
2026-05-04 01:03 59.31427 -21.28338 32112 ft 465 kts 292°
2026-05-04 01:04 59.34158 -21.39851 32106 ft 466 kts 292°
2026-05-04 01:04 59.36884 -21.51409 32099 ft 467 kts 292°
2026-05-04 01:05 59.39601 -21.62988 32098 ft 467 kts 292°
2026-05-04 01:05 59.42286 -21.74493 32100 ft 466 kts 292°
2026-05-04 01:06 59.44974 -21.86072 32102 ft 465 kts 292°
2026-05-04 01:06 59.47647 -21.97649 32098 ft 464 kts 292°
2026-05-04 01:07 59.50307 -22.09236 32109 ft 464 kts 292°
2026-05-04 01:07 59.52956 -22.20836 32103 ft 464 kts 292°
2026-05-04 01:08 59.55597 -22.32463 32102 ft 464 kts 291°
2026-05-04 01:08 59.58226 -22.44102 32110 ft 464 kts 291°
2026-05-04 01:09 59.60844 -22.55756 32114 ft 464 kts 291°
2026-05-04 01:09 59.63451 -22.67428 32111 ft 464 kts 291°
2026-05-04 01:10 59.66034 -22.79053 32100 ft 464 kts 291°
2026-05-04 01:10 59.68623 -22.90769 32110 ft 464 kts 291°
2026-05-04 01:11 59.71200 -23.02498 32113 ft 464 kts 291°
2026-05-04 01:11 59.73749 -23.14166 32110 ft 464 kts 291°
2026-05-04 01:12 59.76301 -23.25911 32117 ft 464 kts 291°
2026-05-04 01:12 59.78845 -23.37686 32116 ft 463 kts 291°
2026-05-04 01:13 59.81374 -23.49458 32131 ft 463 kts 291°
2026-05-04 01:13 59.83894 -23.61254 32126 ft 464 kts 290°
2026-05-04 01:14 59.86404 -23.73076 32128 ft 463 kts 290°
2026-05-04 01:14 59.88901 -23.84898 32107 ft 463 kts 290°
2026-05-04 01:15 59.91366 -23.96638 32128 ft 462 kts 290°
2026-05-04 01:15 59.93833 -24.08454 32132 ft 461 kts 290°
2026-05-04 01:16 59.96286 -24.20273 32130 ft 461 kts 290°
2026-05-04 01:16 59.98728 -24.32106 32131 ft 461 kts 290°
2026-05-04 01:17 60.01168 -24.44001 32128 ft 462 kts 290°
2026-05-04 01:17 60.03599 -24.55922 32131 ft 463 kts 290°
2026-05-04 01:18 60.06024 -24.67884 32135 ft 464 kts 290°
2026-05-04 01:18 60.08437 -24.79853 32125 ft 463 kts 290°
2026-05-04 01:19 60.10832 -24.91804 32133 ft 461 kts 290°
2026-05-04 01:19 60.13193 -25.03656 32131 ft 460 kts 290°
2026-05-04 01:20 60.15556 -25.15593 32138 ft 460 kts 290°
2026-05-04 01:20 60.17911 -25.27560 32132 ft 461 kts 290°
2026-05-04 01:21 60.20259 -25.39561 32138 ft 462 kts 290°
2026-05-04 01:21 60.22206 -25.49572 32136 ft 463 kts 290°
2026-05-04 01:22 60.24540 -25.61633 32142 ft 462 kts 290°
2026-05-04 01:22 60.26860 -25.73697 32134 ft 460 kts 290°
2026-05-04 01:23 60.29156 -25.85715 32132 ft 458 kts 290°
2026-05-04 01:23 60.31436 -25.97715 32139 ft 458 kts 289°
2026-05-04 01:24 60.33706 -26.09743 32139 ft 459 kts 289°
2026-05-04 01:24 60.35968 -26.21801 32143 ft 459 kts 289°
2026-05-04 01:25 60.38209 -26.33822 32140 ft 460 kts 289°
2026-05-04 01:25 60.40459 -26.45966 32139 ft 461 kts 289°
2026-05-04 01:26 60.42702 -26.58145 32138 ft 460 kts 289°
2026-05-04 01:26 60.44920 -26.70267 32156 ft 458 kts 289°
2026-05-04 01:27 60.47107 -26.82299 32146 ft 457 kts 289°
2026-05-04 01:27 60.49293 -26.94399 32141 ft 456 kts 289°
2026-05-04 01:28 60.51466 -27.06506 32141 ft 456 kts 289°
2026-05-04 01:28 60.53628 -27.18631 32143 ft 457 kts 289°
2026-05-04 01:29 60.55783 -27.30789 32145 ft 457 kts 289°
2026-05-04 01:29 60.57929 -27.42980 32145 ft 458 kts 288°
2026-05-04 01:30 60.60067 -27.55197 32151 ft 458 kts 288°
2026-05-04 01:30 60.62191 -27.67419 32147 ft 458 kts 288°
2026-05-04 01:31 60.64289 -27.79572 32146 ft 457 kts 288°
2026-05-04 01:31 60.66386 -27.91799 32143 ft 457 kts 288°
2026-05-04 01:32 60.68470 -28.04032 32145 ft 456 kts 288°
2026-05-04 01:32 60.70544 -28.16287 32146 ft 456 kts 288°
2026-05-04 01:33 60.72606 -28.28550 32145 ft 456 kts 288°
2026-05-04 01:33 60.74658 -28.40838 32153 ft 457 kts 288°
2026-05-04 01:34 60.76701 -28.53157 32148 ft 457 kts 288°
2026-05-04 01:34 60.78721 -28.65415 32150 ft 457 kts 288°
2026-05-04 01:35 60.80739 -28.77751 32148 ft 457 kts 288°
2026-05-04 01:35 60.82747 -28.90107 32150 ft 456 kts 287°
2026-05-04 01:36 60.84741 -29.02465 32148 ft 456 kts 287°
2026-05-04 01:36 60.86723 -29.14833 32146 ft 456 kts 287°
2026-05-04 01:37 60.88694 -29.27214 32156 ft 456 kts 287°
2026-05-04 01:37 60.90655 -29.39627 32152 ft 457 kts 287°
2026-05-04 01:38 60.92607 -29.52062 32153 ft 457 kts 287°
2026-05-04 01:38 60.94534 -29.64432 32153 ft 457 kts 287°
2026-05-04 01:39 60.96464 -29.76908 32155 ft 457 kts 287°
2026-05-04 01:39 60.98384 -29.89397 32155 ft 457 kts 287°
2026-05-04 01:40 61.00003 -30.02052 32164 ft 457 kts 279°
2026-05-04 01:40 61.00598 -30.15053 32156 ft 456 kts 274°
2026-05-04 01:41 61.01020 -30.28089 32153 ft 455 kts 274°
2026-05-04 01:41 61.01449 -30.41027 32144 ft 454 kts 274°
2026-05-04 01:42 61.01881 -30.54026 32162 ft 455 kts 274°
2026-05-04 01:42 61.02307 -30.67055 32161 ft 455 kts 274°
2026-05-04 01:43 61.02720 -30.80105 32162 ft 456 kts 274°
2026-05-04 01:43 61.03121 -30.93175 32161 ft 456 kts 274°
2026-05-04 01:44 61.03509 -31.06260 32167 ft 457 kts 274°
2026-05-04 01:44 61.03882 -31.19268 32165 ft 457 kts 274°
2026-05-04 01:45 61.04245 -31.32360 32159 ft 457 kts 274°
2026-05-04 01:45 61.04765 -31.51995 32170 ft 457 kts 273°
2026-05-04 01:46 61.05097 -31.65117 32169 ft 457 kts 273°
2026-05-04 01:46 61.05415 -31.78229 32169 ft 457 kts 273°
2026-05-04 01:47 61.05722 -31.91367 32167 ft 457 kts 273°
2026-05-04 01:47 61.06015 -32.04499 32158 ft 457 kts 273°
2026-05-04 01:48 61.06296 -32.17607 32164 ft 457 kts 273°
2026-05-04 01:48 61.06563 -32.30720 32173 ft 457 kts 272°
2026-05-04 01:49 61.06816 -32.43749 32183 ft 457 kts 272°
2026-05-04 01:49 61.07059 -32.56887 32177 ft 458 kts 272°
2026-05-04 01:50 61.07289 -32.70039 32177 ft 458 kts 272°
2026-05-04 01:50 61.07507 -32.83199 32180 ft 458 kts 272°
2026-05-04 01:51 61.07712 -32.96391 32177 ft 459 kts 272°
2026-05-04 01:51 61.07903 -33.09503 32182 ft 459 kts 272°
2026-05-04 01:52 61.08082 -33.22695 32179 ft 459 kts 272°
2026-05-04 01:52 61.08249 -33.35896 32181 ft 460 kts 272°
2026-05-04 01:53 61.08403 -33.49124 32187 ft 460 kts 272°
2026-05-04 01:53 61.08544 -33.62342 32187 ft 460 kts 272°
2026-05-04 01:54 61.08672 -33.75559 32176 ft 460 kts 271°
2026-05-04 01:54 61.08787 -33.88782 32191 ft 460 kts 271°
2026-05-04 01:55 61.08889 -34.01950 32183 ft 461 kts 271°
2026-05-04 01:55 61.08979 -34.15214 32190 ft 461 kts 271°
2026-05-04 01:56 61.09055 -34.28484 32183 ft 462 kts 271°
2026-05-04 01:56 61.09119 -34.41755 32184 ft 462 kts 271°
2026-05-04 01:57 61.09170 -34.55026 32191 ft 462 kts 271°
2026-05-04 01:57 61.09207 -34.68301 32187 ft 462 kts 271°
2026-05-04 01:58 61.09232 -34.81589 32185 ft 462 kts 271°
2026-05-04 01:58 61.09244 -34.94900 32185 ft 463 kts 270°
2026-05-04 01:59 61.09242 -35.08210 32190 ft 463 kts 270°
2026-05-04 01:59 61.09228 -35.21539 32187 ft 464 kts 270°
2026-05-04 02:00 61.09200 -35.34797 32191 ft 464 kts 270°
2026-05-04 02:00 61.09160 -35.48137 32172 ft 464 kts 270°
2026-05-04 02:01 61.09106 -35.61482 32179 ft 464 kts 270°
2026-05-04 02:01 61.09039 -35.74836 32182 ft 465 kts 270°
2026-05-04 02:02 61.08958 -35.88198 32179 ft 465 kts 270°
2026-05-04 02:02 61.08865 -36.01555 32191 ft 465 kts 270°
2026-05-04 02:03 61.08758 -36.14921 32181 ft 465 kts 269°
2026-05-04 02:03 61.08639 -36.28224 32171 ft 465 kts 269°
2026-05-04 02:04 61.08505 -36.41616 32187 ft 465 kts 269°
2026-05-04 02:04 61.08359 -36.54977 32184 ft 466 kts 269°
2026-05-04 02:05 61.08199 -36.68383 32183 ft 466 kts 269°
2026-05-04 02:05 61.08026 -36.81776 32184 ft 466 kts 269°
2026-05-04 02:06 61.07841 -36.95074 32182 ft 466 kts 269°
2026-05-04 02:06 61.07641 -37.08459 32183 ft 466 kts 269°
2026-05-04 02:07 61.07428 -37.21847 32176 ft 466 kts 268°
2026-05-04 02:07 61.07202 -37.35237 32180 ft 467 kts 268°
2026-05-04 02:08 61.06962 -37.48638 32179 ft 467 kts 268°
2026-05-04 02:08 61.06753 -37.59771 32167 ft 467 kts 268°
2026-05-04 02:09 61.06489 -37.73180 32166 ft 467 kts 268°
2026-05-04 02:09 61.06212 -37.86564 32183 ft 467 kts 268°
2026-05-04 02:10 61.06068 -37.93271 32366 ft 466 kts 268°
2026-05-04 02:10 61.05922 -37.99931 32753 ft 462 kts 268°
2026-05-04 02:10 61.05774 -38.06526 33132 ft 459 kts 267°
2026-05-04 02:10 61.05624 -38.13087 33448 ft 456 kts 267°
2026-05-04 02:11 61.05471 -38.19620 33707 ft 455 kts 267°
2026-05-04 02:11 61.05315 -38.26159 33901 ft 456 kts 267°
2026-05-04 02:11 61.05156 -38.32702 34003 ft 457 kts 267°
2026-05-04 02:11 61.04992 -38.39270 34093 ft 459 kts 267°
2026-05-04 02:12 61.04655 -38.52476 34161 ft 462 kts 267°
2026-05-04 02:12 61.04304 -38.65680 34159 ft 458 kts 266°
2026-05-04 02:13 61.03945 -38.78690 34170 ft 455 kts 266°
2026-05-04 02:13 61.03574 -38.91713 34177 ft 454 kts 266°
2026-05-04 02:14 61.03190 -39.04732 34168 ft 455 kts 266°
2026-05-04 02:14 61.02792 -39.17800 34171 ft 457 kts 266°
2026-05-04 02:15 61.02381 -39.30891 34175 ft 458 kts 265°
2026-05-04 02:15 61.01955 -39.44039 34159 ft 460 kts 265°
2026-05-04 02:16 61.01515 -39.57217 34167 ft 461 kts 265°
2026-05-04 02:16 61.01065 -39.70329 34165 ft 462 kts 265°
2026-05-04 02:17 61.00601 -39.83530 34153 ft 461 kts 265°
2026-05-04 02:17 61.00069 -39.96689 34149 ft 460 kts 261°
2026-05-04 02:18 60.98622 -40.09508 34159 ft 458 kts 251°
2026-05-04 02:18 60.96650 -40.21980 34162 ft 458 kts 251°
2026-05-04 02:19 60.94698 -40.34435 34165 ft 457 kts 252°
2026-05-04 02:19 60.92753 -40.46881 34158 ft 457 kts 252°
2026-05-04 02:20 60.90804 -40.59314 34167 ft 457 kts 252°
2026-05-04 02:20 60.88857 -40.71655 34166 ft 457 kts 251°
2026-05-04 02:21 60.86883 -40.84069 34167 ft 457 kts 251°
2026-05-04 02:21 60.84898 -40.96464 34170 ft 457 kts 251°
2026-05-04 02:22 60.83903 -41.02647 31771 ft 450 kts 251°
2026-05-04 02:22 60.82763 -41.09434 26249 ft 546 kts 250°
2026-05-04 02:22 60.81497 -41.16484 26767 ft 481 kts 249°
2026-05-04 02:22 60.80332 -41.22671 27010 ft 458 kts 249°
2026-05-04 02:23 60.79194 -41.28545 26820 ft 427 kts 249°
2026-05-04 02:23 60.78155 -41.34001 26751 ft 409 kts 249°
2026-05-04 02:23 60.77133 -41.39447 26899 ft 398 kts 251°
2026-05-04 02:23 60.76343 -41.44725 27132 ft 389 kts 254°
2026-05-04 02:24 60.75643 -41.50124 27180 ft 396 kts 255°
2026-05-04 02:24 60.74918 -41.55628 27245 ft 406 kts 254°
2026-05-04 02:24 60.74126 -41.61247 27335 ft 416 kts 253°
2026-05-04 02:24 60.73266 -41.66963 27413 ft 426 kts 252°
2026-05-04 02:25 60.72344 -41.72794 27488 ft 436 kts 251°
2026-05-04 02:25 60.71383 -41.78673 27556 ft 445 kts 251°
2026-05-04 02:25 60.70374 -41.84712 27661 ft 453 kts 251°
2026-05-04 02:25 60.69343 -41.90814 27925 ft 456 kts 250°
2026-05-04 02:26 60.68300 -41.96942 28307 ft 457 kts 250°
2026-05-04 02:26 60.67252 -42.03078 28676 ft 458 kts 250°
2026-05-04 02:26 60.66200 -42.09221 28980 ft 460 kts 250°
2026-05-04 02:26 60.65140 -42.15400 29252 ft 463 kts 250°
2026-05-04 02:27 60.64073 -42.21601 29518 ft 465 kts 250°
2026-05-04 02:27 60.62999 -42.27822 29811 ft 466 kts 250°
2026-05-04 02:27 60.61923 -42.34041 30189 ft 465 kts 250°
2026-05-04 02:27 60.60848 -42.40232 30554 ft 463 kts 250°
2026-05-04 02:28 60.59774 -42.46399 30887 ft 462 kts 250°
2026-05-04 02:28 60.58699 -42.52550 31183 ft 461 kts 250°
2026-05-04 02:28 60.57622 -42.58697 31475 ft 461 kts 250°
2026-05-04 02:28 60.56544 -42.64823 31768 ft 460 kts 250°
2026-05-04 02:29 60.55466 -42.70931 32067 ft 459 kts 250°
2026-05-04 02:29 60.54400 -42.76951 32344 ft 458 kts 250°
2026-05-04 02:29 60.53321 -42.83025 32607 ft 457 kts 250°
2026-05-04 02:29 60.52239 -42.89095 32865 ft 456 kts 250°
2026-05-04 02:30 60.51157 -42.95143 33130 ft 456 kts 250°
2026-05-04 02:30 60.50073 -43.01191 33379 ft 455 kts 250°
2026-05-04 02:30 60.48987 -43.07222 33619 ft 454 kts 250°
2026-05-04 02:30 60.47901 -43.13240 33839 ft 454 kts 249°
2026-05-04 02:31 60.46814 -43.19245 34066 ft 454 kts 249°
2026-05-04 02:31 60.45722 -43.25256 34195 ft 455 kts 249°
2026-05-04 02:31 60.43517 -43.37336 34334 ft 459 kts 249°
2026-05-04 02:32 60.41290 -43.49458 34526 ft 460 kts 249°
2026-05-04 02:32 60.39058 -43.61537 34695 ft 462 kts 249°
2026-05-04 02:33 60.36789 -43.73734 34875 ft 464 kts 249°
2026-05-04 02:33 60.34498 -43.85978 34955 ft 467 kts 249°
2026-05-04 02:34 60.32183 -43.98266 35115 ft 469 kts 248°
2026-05-04 02:34 60.29850 -44.10576 35164 ft 472 kts 248°
2026-05-04 02:35 60.27490 -44.22944 35187 ft 473 kts 248°
2026-05-04 02:35 60.25115 -44.35319 35208 ft 474 kts 248°
2026-05-04 02:36 60.22730 -44.47673 35193 ft 474 kts 248°
2026-05-04 02:36 60.20329 -44.60020 35198 ft 473 kts 248°
2026-05-04 02:37 60.17937 -44.72252 35198 ft 473 kts 248°
2026-05-04 02:37 60.15524 -44.84512 35213 ft 472 kts 248°
2026-05-04 02:38 60.13101 -44.96747 35199 ft 471 kts 247°
2026-05-04 02:38 60.10671 -45.08942 35205 ft 470 kts 247°
2026-05-04 02:39 60.08233 -45.21105 35203 ft 470 kts 247°
2026-05-04 02:39 60.05790 -45.33225 35218 ft 469 kts 247°
2026-05-04 02:40 60.03339 -45.45308 35206 ft 468 kts 247°
2026-05-04 02:40 60.00876 -45.57374 35204 ft 468 kts 247°
2026-05-04 02:41 59.98405 -45.69413 35209 ft 468 kts 247°
2026-05-04 02:41 59.95922 -45.81437 35210 ft 469 kts 246°
2026-05-04 02:42 59.93426 -45.93450 35207 ft 469 kts 246°
2026-05-04 02:42 59.90930 -46.05396 35200 ft 469 kts 246°
2026-05-04 02:43 59.88408 -46.17392 35219 ft 470 kts 246°
2026-05-04 02:43 59.85872 -46.29392 35201 ft 470 kts 246°
2026-05-04 02:44 59.83325 -46.41369 35200 ft 471 kts 246°
2026-05-04 02:44 59.80761 -46.53355 35200 ft 471 kts 246°
2026-05-04 02:45 59.78184 -46.65336 35202 ft 472 kts 246°
2026-05-04 02:45 59.75593 -46.77311 35187 ft 472 kts 246°
2026-05-04 02:46 59.72992 -46.89265 35188 ft 472 kts 246°
2026-05-04 02:46 59.70380 -47.01198 35175 ft 472 kts 245°
2026-05-04 02:47 59.67773 -47.13043 35184 ft 472 kts 245°
2026-05-04 02:47 59.65138 -47.24949 35176 ft 472 kts 245°
2026-05-04 02:48 59.62492 -47.36835 35172 ft 472 kts 245°
2026-05-04 02:48 59.59832 -47.48717 35169 ft 472 kts 245°
2026-05-04 02:49 59.57164 -47.60570 35167 ft 473 kts 244°
2026-05-04 02:49 59.54484 -47.72409 35162 ft 473 kts 244°
2026-05-04 02:50 59.51790 -47.84244 35161 ft 473 kts 244°
2026-05-04 02:50 59.49082 -47.96073 35153 ft 473 kts 244°
2026-05-04 02:51 59.46383 -48.07800 35150 ft 473 kts 244°
2026-05-04 02:51 59.43653 -48.19593 35149 ft 473 kts 243°
2026-05-04 02:52 59.40914 -48.31357 35160 ft 473 kts 243°
2026-05-04 02:52 59.38170 -48.43091 35139 ft 472 kts 243°
2026-05-04 02:53 59.35423 -48.54774 35132 ft 471 kts 243°
2026-05-04 02:53 59.32671 -48.66405 35124 ft 470 kts 243°
2026-05-04 02:54 59.30379 -48.76048 35123 ft 469 kts 242°
2026-05-04 02:54 59.27166 -48.89491 35126 ft 467 kts 242°
2026-05-04 02:55 59.23490 -49.04772 35117 ft 465 kts 242°
2026-05-04 02:56 59.20728 -49.16186 35107 ft 464 kts 242°
2026-05-04 02:56 59.17961 -49.27558 35101 ft 463 kts 242°
2026-05-04 02:57 59.15191 -49.38883 35102 ft 463 kts 242°
2026-05-04 02:57 59.12411 -49.50190 35094 ft 463 kts 242°
2026-05-04 02:58 59.09621 -49.61485 35100 ft 463 kts 242°
2026-05-04 02:58 59.06815 -49.72783 35092 ft 464 kts 242°
2026-05-04 02:59 59.03999 -49.84071 35086 ft 464 kts 242°
2026-05-04 02:59 59.01172 -49.95347 35083 ft 465 kts 242°
2026-05-04 03:00 58.98841 -50.06978 35079 ft 467 kts 252°
2026-05-04 03:00 58.97019 -50.19072 35068 ft 466 kts 252°
2026-05-04 03:01 58.95172 -50.31122 35066 ft 465 kts 251°
2026-05-04 03:01 58.93299 -50.43122 35048 ft 464 kts 251°
2026-05-04 03:02 58.91415 -50.55069 35048 ft 463 kts 251°
2026-05-04 03:02 58.89523 -50.66973 35051 ft 463 kts 251°
2026-05-04 03:03 58.87638 -50.78758 35041 ft 461 kts 252°
2026-05-04 03:03 58.85740 -50.90549 35036 ft 458 kts 252°
2026-05-04 03:04 58.83838 -51.02287 35036 ft 456 kts 252°
2026-05-04 03:04 58.81938 -51.13937 35051 ft 455 kts 251°
2026-05-04 03:05 58.80026 -51.25580 35035 ft 454 kts 251°
2026-05-04 03:05 58.78110 -51.37171 35032 ft 453 kts 251°
2026-05-04 03:06 58.76196 -51.48674 35032 ft 453 kts 251°
2026-05-04 03:06 58.74260 -51.60237 35026 ft 453 kts 251°
2026-05-04 03:07 58.72309 -51.71811 35026 ft 454 kts 251°
2026-05-04 03:07 58.70349 -51.83370 35020 ft 455 kts 251°
2026-05-04 03:08 58.68373 -51.94942 35020 ft 455 kts 251°
2026-05-04 03:08 58.66388 -52.06495 35014 ft 455 kts 252°
2026-05-04 03:09 58.64427 -52.17839 35000 ft 445 kts 252°
2026-05-04 03:09 58.62478 -52.29042 35011 ft 443 kts 251°
2026-05-04 03:10 58.60516 -52.40256 35006 ft 444 kts 251°
2026-05-04 03:10 58.58537 -52.51495 35002 ft 445 kts 251°
2026-05-04 03:11 58.56542 -52.62758 35003 ft 446 kts 251°
2026-05-04 03:11 58.54534 -52.74023 34995 ft 447 kts 251°
2026-05-04 03:12 58.52521 -52.85250 34988 ft 444 kts 252°
2026-05-04 03:12 58.50522 -52.96329 34983 ft 441 kts 251°
2026-05-04 03:13 58.48520 -53.07361 34981 ft 438 kts 251°
2026-05-04 03:13 58.46521 -53.18316 34980 ft 435 kts 251°
2026-05-04 03:14 58.44522 -53.29205 34985 ft 434 kts 251°
2026-05-04 03:14 58.42517 -53.40070 34997 ft 434 kts 251°
2026-05-04 03:15 58.40502 -53.50925 34994 ft 434 kts 251°
2026-05-04 03:15 58.38490 -53.61693 34984 ft 433 kts 251°
2026-05-04 03:16 58.36461 -53.72496 34979 ft 433 kts 251°
2026-05-04 03:16 58.34424 -53.83282 34980 ft 432 kts 251°
2026-05-04 03:17 58.32383 -53.94034 34976 ft 432 kts 251°
2026-05-04 03:17 58.30335 -54.04757 34977 ft 431 kts 251°
2026-05-04 03:18 58.28280 -54.15459 34977 ft 430 kts 251°
2026-05-04 03:18 58.26221 -54.26122 34976 ft 429 kts 251°
2026-05-04 03:19 58.24156 -54.36759 34975 ft 429 kts 250°
2026-05-04 03:19 58.22084 -54.47375 35001 ft 428 kts 250°
2026-05-04 03:20 58.20018 -54.57905 34980 ft 428 kts 250°
2026-05-04 03:20 58.17931 -54.68482 34967 ft 428 kts 250°
2026-05-04 03:21 58.15836 -54.79042 34976 ft 428 kts 249°
2026-05-04 03:21 58.13734 -54.89582 34977 ft 428 kts 249°
2026-05-04 03:22 58.11622 -55.00119 34974 ft 428 kts 249°
2026-05-04 03:22 58.09502 -55.10637 34963 ft 428 kts 249°
2026-05-04 03:23 58.07372 -55.21151 34956 ft 428 kts 249°
2026-05-04 03:23 58.05234 -55.31647 34967 ft 428 kts 249°
2026-05-04 03:24 58.03098 -55.42081 34966 ft 428 kts 248°
2026-05-04 03:24 58.00936 -55.52585 34960 ft 429 kts 248°
2026-05-04 03:25 57.98765 -55.63080 34965 ft 430 kts 248°
2026-05-04 03:25 57.96583 -55.73568 34970 ft 430 kts 248°
2026-05-04 03:26 57.94395 -55.84039 34954 ft 430 kts 248°
2026-05-04 03:26 57.92213 -55.94425 34956 ft 429 kts 248°
2026-05-04 03:27 57.90007 -56.04870 34946 ft 429 kts 247°
2026-05-04 03:27 57.87798 -56.15275 34952 ft 429 kts 247°
2026-05-04 03:28 57.85579 -56.25678 34948 ft 429 kts 247°
2026-05-04 03:28 57.83354 -56.36058 34946 ft 429 kts 246°
2026-05-04 03:29 57.81133 -56.46365 34949 ft 429 kts 246°
2026-05-04 03:29 57.78886 -56.56736 34947 ft 429 kts 246°
2026-05-04 03:30 57.76634 -56.67086 34969 ft 429 kts 246°
2026-05-04 03:30 57.74367 -56.77443 34950 ft 430 kts 245°
2026-05-04 03:31 57.72089 -56.87813 34936 ft 430 kts 245°
2026-05-04 03:31 57.69802 -56.98165 34936 ft 430 kts 245°
2026-05-04 03:32 57.67506 -57.08505 34938 ft 430 kts 245°
2026-05-04 03:32 57.65203 -57.18826 34936 ft 430 kts 245°
2026-05-04 03:33 57.62906 -57.29070 34936 ft 430 kts 245°
2026-05-04 03:33 57.60587 -57.39366 34932 ft 430 kts 244°
2026-05-04 03:34 57.58261 -57.49641 34934 ft 430 kts 244°
2026-05-04 03:34 57.55924 -57.59915 34930 ft 430 kts 244°
2026-05-04 03:35 57.53574 -57.70195 34925 ft 430 kts 244°
2026-05-04 03:35 57.51223 -57.80440 34929 ft 430 kts 244°
2026-05-04 03:36 57.48863 -57.90671 34928 ft 430 kts 244°
2026-05-04 03:36 57.47085 -58.01260 34929 ft 434 kts 253°
2026-05-04 03:37 57.46140 -58.12395 34923 ft 439 kts 261°
2026-05-04 03:37 57.45699 -58.23699 34927 ft 439 kts 261°
2026-05-04 03:38 57.45266 -58.35024 34923 ft 439 kts 261°
2026-05-04 03:38 57.44808 -58.46341 34923 ft 439 kts 261°
2026-05-04 03:39 57.44328 -58.57661 34937 ft 440 kts 261°
2026-05-04 03:39 57.43834 -58.69005 34928 ft 440 kts 261°
2026-05-04 03:40 57.43330 -58.80322 34923 ft 440 kts 261°
2026-05-04 03:40 57.42819 -58.91565 34914 ft 440 kts 259°
2026-05-04 03:41 57.42296 -59.02884 34926 ft 440 kts 259°
2026-05-04 03:41 57.41762 -59.14204 34917 ft 440 kts 259°
2026-05-04 03:42 57.41217 -59.25523 34911 ft 441 kts 259°
2026-05-04 03:42 57.40755 -59.34960 34920 ft 442 kts 259°
2026-05-04 03:43 57.40191 -59.46303 34911 ft 442 kts 259°
2026-05-04 03:43 57.39615 -59.57652 34910 ft 442 kts 259°
2026-05-04 03:44 57.39030 -59.69003 34915 ft 442 kts 259°
2026-05-04 03:44 57.38434 -59.80351 34906 ft 442 kts 259°
2026-05-04 03:45 57.37829 -59.91680 34902 ft 442 kts 258°
2026-05-04 03:45 57.37213 -60.03008 34940 ft 442 kts 258°
2026-05-04 03:46 57.36589 -60.14290 34913 ft 443 kts 258°
2026-05-04 03:46 57.35952 -60.25640 34905 ft 443 kts 258°
2026-05-04 03:47 57.35304 -60.36993 34907 ft 443 kts 258°
2026-05-04 03:47 57.34646 -60.48336 34901 ft 443 kts 258°
2026-05-04 03:48 57.33977 -60.59682 34896 ft 443 kts 258°
2026-05-04 03:48 57.33298 -60.71013 34958 ft 444 kts 258°
2026-05-04 03:48 57.32954 -60.76695 35084 ft 445 kts 258°
2026-05-04 03:49 57.32605 -60.82403 35135 ft 447 kts 258°
2026-05-04 03:49 57.31894 -60.93889 35211 ft 451 kts 257°
2026-05-04 03:50 57.31171 -61.05444 35353 ft 453 kts 257°
2026-05-04 03:50 57.30439 -61.16972 35472 ft 455 kts 257°
2026-05-04 03:51 57.29686 -61.28635 35581 ft 457 kts 257°
2026-05-04 03:51 57.28919 -61.40345 35682 ft 459 kts 257°
2026-05-04 03:52 57.28141 -61.52066 35850 ft 460 kts 257°
2026-05-04 03:52 57.27347 -61.63840 35902 ft 463 kts 257°
2026-05-04 03:53 57.26536 -61.75691 35910 ft 466 kts 257°
2026-05-04 03:53 57.25709 -61.87624 35911 ft 470 kts 257°
2026-05-04 03:54 57.24871 -61.99540 35921 ft 472 kts 257°
2026-05-04 03:54 57.24012 -62.11603 35913 ft 474 kts 256°
2026-05-04 03:55 57.23142 -62.23655 35944 ft 472 kts 256°
2026-05-04 03:55 57.22272 -62.35562 35912 ft 464 kts 256°
2026-05-04 03:56 57.21400 -62.47331 35915 ft 462 kts 256°
2026-05-04 03:56 57.20846 -62.59170 35894 ft 468 kts 265°
2026-05-04 03:57 57.21449 -62.71140 35915 ft 478 kts 274°
2026-05-04 03:57 57.22983 -62.83196 35922 ft 485 kts 277°
2026-05-04 03:58 57.25438 -63.01479 35916 ft 492 kts 277°
2026-05-04 03:58 57.27040 -63.13798 35921 ft 494 kts 276°
2026-05-04 03:59 57.28621 -63.26186 35930 ft 496 kts 276°
2026-05-04 03:59 57.30190 -63.38613 35924 ft 497 kts 276°
2026-05-04 04:00 57.31749 -63.51062 35945 ft 496 kts 276°
2026-05-04 04:00 57.33294 -63.63515 35933 ft 496 kts 276°
2026-05-04 04:01 57.34827 -63.75969 35920 ft 496 kts 276°
2026-05-04 04:01 57.36345 -63.88413 35920 ft 495 kts 276°
2026-05-04 04:02 57.37840 -64.00776 35924 ft 494 kts 276°
2026-05-04 04:02 57.39327 -64.13213 35918 ft 495 kts 277°
2026-05-04 04:03 57.40809 -64.25696 35925 ft 496 kts 277°
2026-05-04 04:03 57.42284 -64.38238 35907 ft 498 kts 276°
2026-05-04 04:04 57.43751 -64.50822 35912 ft 500 kts 276°
2026-05-04 04:04 57.45210 -64.63463 35899 ft 501 kts 276°
2026-05-04 04:05 57.46659 -64.76126 35896 ft 502 kts 276°
2026-05-04 04:05 57.48089 -64.88748 35896 ft 502 kts 276°
2026-05-04 04:06 57.49516 -65.01467 35890 ft 502 kts 276°
2026-05-04 04:06 57.50929 -65.14177 35894 ft 501 kts 276°
2026-05-04 04:07 57.52325 -65.26879 35911 ft 501 kts 276°
2026-05-04 04:07 57.53709 -65.39605 35896 ft 502 kts 276°
2026-05-04 04:08 57.55086 -65.52366 35893 ft 502 kts 276°
2026-05-04 04:08 57.56449 -65.65136 35875 ft 503 kts 276°
2026-05-04 04:09 57.56475 -65.65377 35870 ft 503 kts 276°
2026-05-04 04:09 57.56978 -65.70131 35871 ft 502 kts 276°
2026-05-04 04:10 57.58323 -65.82909 35888 ft 502 kts 276°
2026-05-04 04:10 57.59657 -65.95718 35879 ft 504 kts 276°
2026-05-04 04:11 57.60981 -66.08572 35877 ft 505 kts 276°
2026-05-04 04:11 57.62293 -66.21443 35875 ft 506 kts 276°
2026-05-04 04:12 57.63588 -66.34280 35866 ft 506 kts 276°
2026-05-04 04:12 57.64877 -66.47198 35891 ft 506 kts 276°
2026-05-04 04:13 57.66155 -66.60149 35871 ft 507 kts 276°
2026-05-04 04:13 57.67421 -66.73116 35855 ft 507 kts 275°
2026-05-04 04:14 57.68675 -66.86108 35856 ft 507 kts 275°
2026-05-04 04:14 57.69916 -66.99093 35851 ft 507 kts 275°
2026-05-04 04:15 57.71275 -67.11986 35850 ft 509 kts 278°
2026-05-04 04:15 57.72795 -67.24935 35844 ft 510 kts 278°
2026-05-04 04:16 57.74305 -67.37911 35850 ft 510 kts 277°
2026-05-04 04:16 57.75770 -67.50904 35855 ft 510 kts 277°
2026-05-04 04:17 57.77208 -67.63924 35880 ft 510 kts 277°
2026-05-04 04:17 57.78633 -67.76974 35856 ft 511 kts 277°
2026-05-04 04:18 57.80049 -67.90065 35850 ft 512 kts 277°
2026-05-04 04:18 57.81446 -68.03097 35848 ft 513 kts 277°
2026-05-04 04:19 57.82839 -68.16225 35845 ft 513 kts 277°
2026-05-04 04:19 57.84219 -68.29370 35856 ft 514 kts 277°
2026-05-04 04:20 57.85589 -68.42565 35844 ft 514 kts 277°
2026-05-04 04:20 57.86944 -68.55752 35837 ft 514 kts 277°
2026-05-04 04:21 57.88283 -68.68936 35832 ft 514 kts 277°
2026-05-04 04:21 57.89611 -68.82142 35845 ft 513 kts 277°
2026-05-04 04:22 57.90925 -68.95360 35831 ft 514 kts 277°
2026-05-04 04:22 57.92223 -69.08574 35825 ft 514 kts 277°
2026-05-04 04:23 57.93502 -69.21731 35823 ft 514 kts 277°
2026-05-04 04:23 57.94775 -69.34983 35824 ft 514 kts 277°
2026-05-04 04:24 57.96035 -69.48254 35835 ft 515 kts 277°
2026-05-04 04:24 57.97280 -69.61525 35824 ft 515 kts 277°
2026-05-04 04:25 57.98514 -69.74823 35818 ft 515 kts 276°
2026-05-04 04:25 57.99734 -69.88137 35819 ft 515 kts 276°
2026-05-04 04:26 58.00943 -70.01482 35812 ft 515 kts 276°
2026-05-04 04:26 58.02135 -70.14818 35816 ft 515 kts 276°
2026-05-04 04:27 58.03306 -70.28077 35798 ft 515 kts 276°
2026-05-04 04:27 58.04471 -70.41427 35802 ft 515 kts 276°
2026-05-04 04:28 58.05622 -70.54790 35786 ft 515 kts 276°
2026-05-04 04:28 58.06758 -70.68150 35799 ft 515 kts 276°
2026-05-04 04:29 58.07878 -70.81497 35793 ft 514 kts 276°
2026-05-04 04:29 58.08977 -70.94768 35784 ft 514 kts 276°
2026-05-04 04:30 58.10069 -71.08126 35801 ft 514 kts 276°
2026-05-04 04:30 58.10966 -71.19247 35795 ft 514 kts 276°
2026-05-04 04:31 58.12032 -71.32618 35787 ft 514 kts 276°
2026-05-04 04:31 58.13086 -71.46017 35792 ft 514 kts 275°
2026-05-04 04:32 58.14124 -71.59407 35789 ft 514 kts 275°
2026-05-04 04:32 58.15149 -71.72811 35789 ft 515 kts 275°
2026-05-04 04:33 58.16160 -71.86234 35798 ft 515 kts 275°
2026-05-04 04:33 58.17152 -71.99578 35781 ft 515 kts 275°
2026-05-04 04:34 58.18136 -72.13031 35776 ft 515 kts 275°
2026-05-04 04:34 58.19108 -72.26510 35767 ft 515 kts 275°
2026-05-04 04:35 58.20065 -72.39989 35767 ft 516 kts 275°
2026-05-04 04:35 58.21006 -72.53462 35777 ft 516 kts 275°
2026-05-04 04:36 58.21935 -72.66953 35769 ft 516 kts 275°
2026-05-04 04:36 58.22850 -72.80472 35759 ft 516 kts 275°
2026-05-04 04:37 58.24631 -73.07412 35757 ft 516 kts 275°
2026-05-04 04:38 58.25502 -73.20939 35763 ft 516 kts 275°
2026-05-04 04:38 58.26361 -73.34488 35757 ft 516 kts 274°
2026-05-04 04:39 58.27205 -73.48029 35754 ft 516 kts 274°
2026-05-04 04:39 58.28033 -73.61571 35753 ft 516 kts 274°
2026-05-04 04:40 58.28848 -73.75117 35766 ft 516 kts 274°
2026-05-04 04:40 58.29644 -73.88615 35759 ft 516 kts 274°
2026-05-04 04:41 58.30430 -74.02183 35758 ft 516 kts 274°
2026-05-04 04:41 58.31202 -74.15755 35745 ft 516 kts 274°
2026-05-04 04:42 58.31959 -74.29324 35739 ft 515 kts 274°
2026-05-04 04:42 58.32701 -74.42876 35745 ft 515 kts 274°
2026-05-04 04:43 58.33428 -74.56447 35749 ft 515 kts 274°
2026-05-04 04:43 58.34142 -74.70024 35751 ft 515 kts 274°
2026-05-04 04:44 58.34836 -74.83521 35743 ft 515 kts 274°
2026-05-04 04:44 58.35520 -74.97110 35757 ft 515 kts 274°
2026-05-04 04:45 58.36190 -75.10698 35746 ft 515 kts 274°
2026-05-04 04:47 58.38424 -75.58338 35753 ft 516 kts 273°
2026-05-04 04:47 58.39026 -75.71878 35746 ft 516 kts 273°
2026-05-04 04:48 58.39618 -75.85523 35735 ft 516 kts 273°
2026-05-04 04:49 58.41036 -76.19661 35740 ft 516 kts 272°
2026-05-04 04:49 58.41576 -76.33339 35736 ft 517 kts 272°
2026-05-04 04:50 58.42100 -76.46916 35728 ft 517 kts 272°
2026-05-04 04:50 58.42613 -76.60597 35729 ft 516 kts 272°
2026-05-04 04:51 58.43111 -76.74269 35725 ft 516 kts 272°
2026-05-04 04:51 58.43594 -76.87951 35724 ft 516 kts 272°
2026-05-04 04:52 58.44063 -77.01630 35721 ft 516 kts 272°
2026-05-04 04:52 58.44514 -77.15232 35720 ft 516 kts 272°
2026-05-04 04:53 58.44953 -77.28900 35720 ft 516 kts 272°
2026-05-04 04:53 58.45377 -77.42577 35720 ft 515 kts 272°
2026-05-04 04:54 58.45787 -77.56244 35714 ft 516 kts 272°
2026-05-04 04:54 58.46183 -77.69928 35715 ft 515 kts 271°
2026-05-04 04:55 58.46563 -77.83606 35710 ft 515 kts 271°
2026-05-04 04:55 58.46929 -77.97194 35706 ft 515 kts 271°
2026-05-04 04:56 58.47272 -78.10864 35709 ft 515 kts 271°
2026-05-04 04:56 58.47397 -78.24573 35692 ft 515 kts 269°
2026-05-04 04:57 58.47415 -78.38199 35690 ft 514 kts 269°
2026-05-04 04:57 58.47439 -78.51882 35683 ft 514 kts 269°
2026-05-04 04:58 58.47476 -78.65559 35686 ft 514 kts 269°
2026-05-04 04:58 58.47509 -78.79213 35678 ft 514 kts 269°
2026-05-04 04:59 58.47526 -78.92808 35680 ft 514 kts 269°
2026-05-04 04:59 58.47528 -79.06491 35667 ft 515 kts 269°
2026-05-04 05:00 58.47514 -79.20150 35675 ft 514 kts 269°
2026-05-04 05:01 58.47465 -79.40664 35677 ft 515 kts 269°
2026-05-04 05:01 58.47415 -79.54349 35655 ft 515 kts 268°
2026-05-04 05:02 58.47350 -79.68036 35662 ft 515 kts 268°
2026-05-04 05:02 58.47271 -79.81720 35652 ft 515 kts 268°
2026-05-04 05:03 58.47177 -79.95401 35653 ft 515 kts 268°
2026-05-04 05:04 58.46946 -80.22681 35647 ft 514 kts 268°
2026-05-04 05:04 58.46808 -80.36336 35648 ft 514 kts 268°
2026-05-04 05:06 58.46116 -80.90781 35631 ft 513 kts 268°
2026-05-04 05:07 58.45907 -81.04392 35627 ft 513 kts 267°
2026-05-04 05:07 58.45683 -81.17998 35621 ft 513 kts 267°
2026-05-04 05:09 58.44501 -81.79139 35612 ft 512 kts 267°
2026-05-04 05:10 58.44198 -81.92714 35612 ft 512 kts 267°
2026-05-04 05:10 58.43882 -82.06284 35609 ft 511 kts 267°
2026-05-04 05:11 58.43552 -82.19838 35609 ft 511 kts 266°
2026-05-04 05:11 58.43207 -82.33391 35604 ft 511 kts 266°
2026-05-04 05:12 58.42848 -82.46926 35606 ft 510 kts 266°
2026-05-04 05:12 58.42476 -82.60446 35605 ft 510 kts 266°
2026-05-04 05:13 58.42091 -82.73880 35600 ft 510 kts 266°
2026-05-04 05:13 58.41691 -82.87390 35599 ft 509 kts 266°
2026-05-04 05:14 58.41276 -83.00883 35596 ft 509 kts 266°
2026-05-04 05:14 58.40847 -83.14378 35596 ft 509 kts 266°
2026-05-04 05:15 58.40405 -83.27849 35593 ft 509 kts 266°
2026-05-04 05:15 58.39950 -83.41258 35593 ft 509 kts 266°
2026-05-04 05:16 58.39479 -83.54738 35591 ft 509 kts 266°
2026-05-04 05:16 58.38994 -83.68210 35590 ft 509 kts 265°
2026-05-04 05:17 58.38494 -83.81696 35590 ft 509 kts 265°
2026-05-04 05:17 58.37980 -83.95159 35591 ft 509 kts 265°
2026-05-04 05:18 58.37452 -84.08631 35590 ft 509 kts 265°
2026-05-04 05:18 58.36911 -84.22087 35590 ft 509 kts 265°
2026-05-04 05:19 58.36358 -84.35459 35585 ft 509 kts 265°
2026-05-04 05:19 58.35788 -84.48921 35592 ft 509 kts 265°
2026-05-04 05:20 58.35303 -84.60106 35587 ft 509 kts 265°
2026-05-04 05:20 58.35026 -84.66406 35583 ft 508 kts 265°
2026-05-04 05:21 58.34808 -84.71292 35583 ft 508 kts 265°
2026-05-04 05:22 58.34202 -84.84699 35584 ft 507 kts 265°
2026-05-04 05:22 58.33584 -84.98070 35584 ft 506 kts 265°
2026-05-04 05:23 58.32952 -85.11425 35581 ft 506 kts 265°
2026-05-04 05:23 58.32307 -85.24741 35581 ft 505 kts 264°
2026-05-04 05:24 58.31653 -85.37979 35579 ft 505 kts 264°
2026-05-04 05:24 58.30982 -85.51280 35579 ft 505 kts 264°
2026-05-04 05:25 58.30297 -85.64564 35579 ft 504 kts 264°
2026-05-04 05:25 58.29599 -85.77827 35580 ft 504 kts 264°
2026-05-04 05:26 58.28886 -85.91129 35579 ft 505 kts 264°
2026-05-04 05:26 58.28164 -86.04310 35580 ft 505 kts 264°
2026-05-04 05:28 58.25119 -86.57405 35577 ft 506 kts 263°
2026-05-04 05:29 58.24322 -86.70689 35580 ft 506 kts 263°
2026-05-04 05:29 58.23512 -86.83954 35579 ft 506 kts 263°
2026-05-04 05:31 58.20141 -87.36842 35580 ft 506 kts 263°
2026-05-04 05:32 58.19262 -87.50071 35579 ft 505 kts 263°
2026-05-04 05:33 58.17921 -87.69883 35593 ft 505 kts 263°
2026-05-04 05:33 58.17009 -87.83085 35582 ft 505 kts 262°
2026-05-04 05:34 58.16085 -87.96262 35584 ft 504 kts 262°
2026-05-04 05:34 58.15147 -88.09429 35584 ft 504 kts 262°
2026-05-04 05:35 58.14203 -88.22494 35574 ft 503 kts 262°
2026-05-04 05:35 58.13241 -88.35616 35588 ft 503 kts 262°
2026-05-04 05:36 58.12264 -88.48744 35592 ft 503 kts 262°
2026-05-04 05:36 58.11276 -88.61838 35589 ft 503 kts 262°
2026-05-04 05:37 58.10275 -88.74925 35589 ft 503 kts 262°
2026-05-04 05:37 58.09260 -88.88010 35593 ft 503 kts 262°
2026-05-04 05:38 58.07717 -89.07553 35591 ft 503 kts 262°
2026-05-04 05:38 58.06667 -89.20644 35591 ft 504 kts 261°
2026-05-04 05:39 58.05065 -89.40279 35595 ft 504 kts 261°
2026-05-04 05:40 58.03433 -89.59891 35602 ft 504 kts 261°
2026-05-04 05:40 58.02336 -89.72870 35602 ft 504 kts 261°
2026-05-04 05:41 58.01221 -89.85910 35603 ft 504 kts 261°
2026-05-04 05:41 58.00095 -89.98938 35607 ft 503 kts 261°
2026-05-04 05:42 57.99246 -90.12033 35612 ft 503 kts 264°
2026-05-04 05:42 57.98513 -90.25170 35608 ft 503 kts 264°
2026-05-04 05:43 57.97767 -90.38292 35620 ft 504 kts 264°
2026-05-04 05:45 57.94542 -90.90692 35627 ft 505 kts 263°
2026-05-04 05:47 57.91084 -91.43171 35635 ft 504 kts 263°
2026-05-04 05:47 57.90193 -91.56173 35637 ft 504 kts 263°
2026-05-04 05:48 57.89284 -91.69232 35630 ft 503 kts 262°
2026-05-04 05:48 57.88363 -91.82269 35634 ft 503 kts 262°
2026-05-04 05:49 57.87426 -91.95321 35653 ft 503 kts 262°
2026-05-04 05:49 57.86478 -92.08350 35651 ft 503 kts 262°
2026-05-04 05:51 57.82550 -92.60402 35660 ft 503 kts 262°
2026-05-04 05:52 57.81536 -92.73395 35658 ft 503 kts 262°
2026-05-04 05:52 57.80508 -92.86371 35652 ft 502 kts 262°
2026-05-04 05:54 57.76279 -93.38041 35668 ft 502 kts 261°
2026-05-04 05:55 57.75188 -93.50956 35670 ft 503 kts 261°
2026-05-04 05:55 57.74082 -93.63883 35683 ft 502 kts 261°
2026-05-04 05:56 57.72963 -93.76800 35689 ft 502 kts 261°
2026-05-04 05:56 57.71833 -93.89680 35690 ft 501 kts 261°
2026-05-04 05:57 57.70693 -94.02516 35684 ft 500 kts 261°
2026-05-04 05:57 57.69547 -94.15272 35688 ft 500 kts 261°
2026-05-04 05:58 57.68383 -94.28073 35695 ft 500 kts 261°
2026-05-04 05:58 57.67205 -94.40884 35705 ft 500 kts 261°
2026-05-04 05:59 57.66012 -94.53698 35702 ft 500 kts 261°
2026-05-04 05:59 57.64807 -94.66501 35708 ft 500 kts 261°
2026-05-04 06:00 57.63596 -94.79223 35710 ft 500 kts 260°
2026-05-04 06:00 57.62365 -94.92009 35719 ft 500 kts 261°
2026-05-04 06:01 57.61121 -95.04790 35722 ft 500 kts 260°
2026-05-04 06:03 57.56030 -95.55690 35730 ft 500 kts 260°
2026-05-04 06:05 57.50059 -96.12767 35747 ft 499 kts 260°
2026-05-04 06:06 57.48698 -96.25417 35749 ft 498 kts 259°
2026-05-04 06:06 57.47327 -96.38037 35748 ft 497 kts 259°
2026-05-04 06:07 57.45944 -96.50631 35747 ft 496 kts 259°
2026-05-04 06:07 57.44563 -96.63103 35741 ft 496 kts 259°
2026-05-04 06:08 57.43159 -96.75652 35756 ft 496 kts 260°
2026-05-04 06:08 57.41745 -96.88168 35754 ft 496 kts 259°
2026-05-04 06:09 57.40558 -96.98582 35769 ft 496 kts 259°
2026-05-04 06:11 57.34721 -97.48669 35769 ft 497 kts 259°
2026-05-04 06:13 57.28690 -97.98534 35777 ft 496 kts 259°
2026-05-04 06:14 57.23271 -98.41884 35790 ft 495 kts 259°
2026-05-04 06:15 57.21695 -98.54258 35788 ft 496 kts 258°
2026-05-04 06:15 57.20103 -98.66641 35804 ft 496 kts 259°
2026-05-04 06:16 57.18497 -98.79022 35797 ft 496 kts 258°
2026-05-04 06:16 57.16889 -98.91326 35795 ft 496 kts 258°
2026-05-04 06:17 57.15261 -99.03678 35802 ft 496 kts 258°
2026-05-04 06:17 57.13618 -99.16033 35799 ft 496 kts 258°
2026-05-04 06:18 57.11967 -99.28351 35804 ft 495 kts 257°
2026-05-04 06:20 57.05258 -99.77398 35817 ft 495 kts 258°
2026-05-04 06:21 57.00961 -100.08018 35813 ft 495 kts 257°
2026-05-04 06:22 56.99222 -100.20236 35832 ft 495 kts 258°
2026-05-04 06:25 56.86733 -101.05390 35779 ft 494 kts 257°
2026-05-04 06:26 56.84998 -101.17542 35783 ft 493 kts 259°
2026-05-04 06:26 56.83414 -101.29629 35848 ft 492 kts 259°
2026-05-04 06:27 56.79352 -101.59990 35847 ft 493 kts 258°
2026-05-04 06:28 56.77686 -101.72112 35855 ft 493 kts 258°
2026-05-04 06:28 56.76003 -101.84249 35855 ft 493 kts 258°
2026-05-04 06:29 56.74313 -101.96354 35863 ft 492 kts 258°
2026-05-04 06:29 56.72614 -102.08434 35867 ft 492 kts 258°
2026-05-04 06:30 56.70904 -102.20499 35873 ft 492 kts 258°
2026-05-04 06:30 56.69181 -102.32562 35851 ft 492 kts 258°
2026-05-04 06:31 56.67461 -102.44515 35868 ft 492 kts 258°
2026-05-04 06:31 56.65717 -102.56541 35874 ft 491 kts 258°
2026-05-04 06:33 56.58633 -103.04482 35873 ft 490 kts 258°
2026-05-04 06:34 56.56840 -103.16391 35882 ft 490 kts 258°
2026-05-04 06:34 56.55035 -103.28295 35882 ft 489 kts 258°
2026-05-04 06:36 56.47726 -103.75644 35910 ft 488 kts 258°
2026-05-04 06:37 56.45870 -103.87457 35898 ft 488 kts 258°
2026-05-04 06:37 56.44005 -103.99245 35894 ft 487 kts 258°
2026-05-04 06:38 56.42143 -104.10932 35903 ft 487 kts 258°
2026-05-04 06:40 56.34557 -104.57739 35916 ft 485 kts 258°
2026-05-04 06:40 56.32636 -104.69392 35929 ft 485 kts 258°
2026-05-04 06:41 56.30704 -104.81036 35928 ft 485 kts 258°
2026-05-04 06:41 56.28759 -104.92685 35932 ft 485 kts 258°
2026-05-04 06:42 56.26805 -105.04303 35940 ft 485 kts 258°
2026-05-04 06:44 56.18906 -105.50520 35940 ft 484 kts 258°
2026-05-04 06:44 56.16904 -105.62048 35925 ft 483 kts 258°
2026-05-04 06:45 56.14897 -105.73535 35944 ft 482 kts 258°
2026-05-04 06:45 56.12878 -105.85014 35941 ft 482 kts 258°
2026-05-04 06:46 56.10855 -105.96459 35954 ft 481 kts 258°
2026-05-04 06:46 56.08646 -106.07794 35943 ft 486 kts 251°
2026-05-04 06:48 55.96374 -106.50928 35967 ft 487 kts 249°
2026-05-04 06:50 55.84006 -106.93935 35973 ft 488 kts 248°
2026-05-04 06:51 55.80903 -107.04597 35976 ft 488 kts 248°
2026-05-04 06:51 55.77776 -107.15290 35968 ft 487 kts 248°
2026-05-04 06:52 55.74643 -107.25955 35975 ft 487 kts 248°
2026-05-04 06:52 55.71505 -107.36590 35991 ft 486 kts 248°
2026-05-04 06:53 55.68361 -107.47198 35992 ft 486 kts 248°
2026-05-04 06:53 55.65208 -107.57790 35994 ft 486 kts 248°
2026-05-04 06:54 55.62581 -107.66576 35989 ft 485 kts 247°
2026-05-04 06:54 55.59420 -107.77106 35998 ft 484 kts 247°
2026-05-04 06:55 55.56252 -107.87611 36006 ft 484 kts 247°
2026-05-04 06:55 55.53079 -107.98088 36011 ft 483 kts 247°
2026-05-04 06:57 55.40346 -108.39669 36036 ft 482 kts 247°
2026-05-04 06:58 55.37161 -108.49959 36059 ft 482 kts 247°
2026-05-04 06:58 55.33947 -108.60295 36037 ft 481 kts 247°
2026-05-04 06:59 55.30726 -108.70609 36051 ft 481 kts 247°
2026-05-04 06:59 55.27500 -108.80896 36060 ft 481 kts 247°
2026-05-04 07:01 55.14491 -109.21935 36053 ft 482 kts 246°
2026-05-04 07:02 55.11210 -109.32175 36058 ft 482 kts 246°
2026-05-04 07:02 55.07925 -109.42385 36059 ft 482 kts 246°
2026-05-04 07:03 55.04628 -109.52588 36018 ft 482 kts 247°
2026-05-04 07:03 55.01328 -109.62753 36044 ft 482 kts 247°
2026-05-04 07:04 54.98045 -109.72830 36051 ft 482 kts 246°
2026-05-04 07:04 54.94727 -109.82971 36057 ft 482 kts 246°
2026-05-04 07:05 54.91401 -109.93093 36057 ft 482 kts 246°
2026-05-04 07:05 54.88067 -110.03194 36053 ft 482 kts 246°
2026-05-04 07:06 54.83048 -110.18327 36053 ft 482 kts 246°
2026-05-04 07:07 54.79691 -110.28394 36055 ft 482 kts 246°
2026-05-04 07:09 54.66185 -110.68482 36072 ft 482 kts 247°
2026-05-04 07:09 54.62808 -110.78407 36072 ft 482 kts 247°
2026-05-04 07:10 54.59393 -110.88402 36025 ft 483 kts 247°
2026-05-04 07:12 54.45710 -111.28032 36079 ft 481 kts 247°
2026-05-04 07:12 54.42263 -111.37917 36075 ft 481 kts 247°
2026-05-04 07:13 54.38811 -111.47777 36071 ft 482 kts 247°
2026-05-04 07:13 54.35350 -111.57623 36072 ft 481 kts 247°
2026-05-04 07:14 54.26694 -111.82071 36062 ft 480 kts 247°
2026-05-04 07:15 54.23219 -111.91817 36065 ft 480 kts 247°
2026-05-04 07:15 54.19741 -112.01539 36074 ft 479 kts 247°
2026-05-04 07:16 54.16256 -112.11242 36073 ft 479 kts 247°
2026-05-04 07:16 54.12762 -112.20928 36015 ft 479 kts 247°
2026-05-04 07:17 54.09290 -112.30512 36077 ft 477 kts 248°
2026-05-04 07:17 54.05798 -112.40122 36076 ft 477 kts 248°
2026-05-04 07:18 54.02297 -112.49718 36083 ft 477 kts 248°
2026-05-04 07:18 53.98790 -112.59293 36086 ft 477 kts 247°
2026-05-04 07:19 53.95275 -112.68852 36071 ft 476 kts 248°
2026-05-04 07:19 53.91765 -112.78356 36083 ft 475 kts 248°
2026-05-04 07:20 53.88250 -112.87845 36083 ft 474 kts 248°
2026-05-04 07:20 53.84734 -112.97302 36081 ft 474 kts 248°
2026-05-04 07:22 53.70617 -113.34910 36102 ft 476 kts 248°
2026-05-04 07:23 53.67050 -113.44330 36103 ft 477 kts 248°
2026-05-04 07:23 53.63407 -113.53724 36076 ft 481 kts 245°
2026-05-04 07:24 53.59507 -113.62846 36096 ft 484 kts 244°
2026-05-04 07:24 53.55523 -113.72004 36089 ft 486 kts 244°
2026-05-04 07:26 53.39525 -114.08762 36094 ft 488 kts 244°
2026-05-04 07:27 53.35507 -114.17931 36100 ft 488 kts 244°
2026-05-04 07:27 53.31478 -114.27087 36100 ft 489 kts 244°
2026-05-04 07:28 53.27464 -114.36177 36089 ft 488 kts 244°
2026-05-04 07:28 53.23422 -114.45296 36088 ft 489 kts 244°
2026-05-04 07:29 53.19365 -114.54418 36085 ft 490 kts 244°
2026-05-04 07:29 53.15296 -114.63536 36092 ft 491 kts 244°
2026-05-04 07:30 53.11211 -114.72654 36052 ft 491 kts 243°
2026-05-04 07:30 53.07116 -114.81760 36090 ft 491 kts 243°
2026-05-04 07:31 53.03039 -114.90794 36089 ft 492 kts 243°
2026-05-04 07:33 52.86567 -115.26969 36094 ft 490 kts 243°
2026-05-04 07:33 52.82435 -115.35965 36093 ft 490 kts 243°
2026-05-04 07:34 52.78300 -115.44938 36087 ft 490 kts 243°
2026-05-04 07:34 52.74188 -115.53826 36085 ft 491 kts 243°
2026-05-04 07:35 52.70035 -115.62773 36096 ft 490 kts 243°
2026-05-04 07:35 52.65881 -115.71688 36094 ft 490 kts 242°
2026-05-04 07:36 52.61717 -115.80592 36091 ft 490 kts 242°
2026-05-04 07:38 52.45050 -116.15937 36112 ft 491 kts 242°
2026-05-04 07:38 52.40849 -116.24769 36051 ft 491 kts 242°
2026-05-04 07:39 52.36635 -116.33591 36110 ft 492 kts 242°
2026-05-04 07:39 52.32401 -116.42435 36112 ft 495 kts 242°
2026-05-04 07:40 52.28160 -116.51261 36093 ft 498 kts 242°
2026-05-04 07:40 52.23882 -116.60138 36032 ft 497 kts 242°
2026-05-04 07:41 52.19603 -116.68961 36094 ft 495 kts 242°
2026-05-04 07:41 52.15322 -116.77763 36077 ft 495 kts 242°
2026-05-04 07:42 52.11753 -116.85093 36071 ft 497 kts 242°
2026-05-04 07:42 52.07454 -116.93892 36034 ft 495 kts 241°
2026-05-04 07:43 52.03159 -117.02640 36041 ft 495 kts 241°
2026-05-04 07:43 51.98854 -117.11392 36014 ft 497 kts 241°
2026-05-04 07:44 51.94555 -117.20093 35989 ft 497 kts 241°
2026-05-04 07:44 51.90235 -117.28812 35972 ft 497 kts 241°
2026-05-04 07:45 51.85903 -117.37537 35969 ft 497 kts 240°
2026-05-04 07:45 51.81550 -117.46263 35974 ft 500 kts 240°
2026-05-04 07:46 51.77159 -117.55018 35971 ft 502 kts 240°
2026-05-04 07:46 51.72780 -117.63740 35959 ft 503 kts 240°
2026-05-04 07:47 51.68368 -117.72502 35936 ft 503 kts 240°
2026-05-04 07:49 51.50644 -118.07345 35955 ft 503 kts 239°
2026-05-04 07:49 51.46195 -118.16034 35942 ft 503 kts 238°
2026-05-04 07:50 51.41737 -118.24688 35955 ft 504 kts 239°
2026-05-04 07:50 51.37300 -118.33281 35945 ft 503 kts 238°
2026-05-04 07:51 51.32858 -118.41842 35965 ft 500 kts 238°
2026-05-04 07:51 51.30638 -118.46115 35828 ft 499 kts 238°
2026-05-04 07:51 51.28413 -118.50332 35955 ft 493 kts 239°
2026-05-04 07:52 51.24011 -118.58846 35951 ft 502 kts 239°
2026-05-04 07:52 51.19512 -118.67496 35958 ft 508 kts 238°
2026-05-04 07:53 51.17242 -118.71820 35851 ft 507 kts 238°
2026-05-04 07:54 51.01333 -119.01910 35914 ft 509 kts 237°
2026-05-04 07:55 50.96759 -119.10505 35903 ft 508 kts 237°
2026-05-04 07:55 50.92192 -119.19056 35914 ft 508 kts 237°
2026-05-04 07:56 50.87624 -119.27585 35899 ft 507 kts 237°
2026-05-04 07:56 50.83054 -119.36091 35904 ft 506 kts 237°
2026-05-04 07:57 50.78490 -119.44557 35921 ft 505 kts 237°
2026-05-04 07:57 50.73914 -119.53019 35920 ft 507 kts 237°
2026-05-04 07:58 50.69348 -119.61434 35918 ft 508 kts 236°
2026-05-04 07:58 50.64741 -119.69897 35919 ft 509 kts 236°
2026-05-04 07:59 50.60121 -119.78348 35907 ft 509 kts 236°
2026-05-04 07:59 50.55489 -119.86803 35920 ft 510 kts 236°
2026-05-04 08:00 50.50838 -119.95262 35936 ft 511 kts 236°
2026-05-04 08:02 50.32184 -120.28905 35931 ft 512 kts 235°
2026-05-04 08:02 50.27488 -120.37303 35911 ft 512 kts 234°
2026-05-04 08:03 50.22794 -120.45680 35936 ft 513 kts 234°
2026-05-04 08:03 50.18081 -120.54056 35909 ft 513 kts 234°
2026-05-04 08:04 50.13372 -120.62395 35935 ft 513 kts 234°
2026-05-04 08:04 50.08651 -120.70741 35927 ft 513 kts 234°
2026-05-04 08:05 50.03955 -120.79007 35944 ft 513 kts 234°
2026-05-04 08:05 49.99218 -120.87323 35962 ft 514 kts 234°
2026-05-04 08:06 49.94539 -120.95727 35939 ft 512 kts 238°
2026-05-04 08:06 49.90741 -121.04904 35948 ft 502 kts 246°
2026-05-04 08:08 49.76475 -121.42372 35945 ft 508 kts 245°
2026-05-04 08:11 49.60014 -121.84653 35879 ft 506 kts 244°
2026-05-04 08:11 49.54526 -121.98604 35890 ft 508 kts 244°
2026-05-04 08:12 49.50850 -122.07889 35845 ft 505 kts 243°
2026-05-04 08:12 49.47195 -122.17070 35878 ft 500 kts 243°
2026-05-04 08:13 49.43589 -122.26137 35884 ft 495 kts 244°
2026-05-04 08:13 49.40019 -122.35079 35874 ft 496 kts 241°
2026-05-04 08:14 49.35530 -122.43245 35899 ft 505 kts 230°
2026-05-04 08:16 49.16972 -122.75444 35883 ft 497 kts 243°
2026-05-04 08:16 49.15490 -122.80109 35860 ft 481 kts 262°
2026-05-04 08:16 49.15133 -122.85009 35872 ft 462 kts 283°
2026-05-04 08:17 49.15913 -122.89628 35884 ft 443 kts 303°
2026-05-04 08:17 49.17264 -122.93823 35886 ft 445 kts 298°
2026-05-04 08:17 49.18190 -122.98408 35892 ft 458 kts 289°
2026-05-04 08:17 49.18786 -123.03211 35884 ft 463 kts 285°
2026-05-04 08:19 49.26616 -123.33649 35885 ft 445 kts 315°
2026-05-04 08:19 49.28457 -123.37486 35851 ft 454 kts 303°
2026-05-04 08:20 49.29452 -123.42169 35888 ft 475 kts 282°
2026-05-04 08:20 49.29345 -123.47317 35898 ft 490 kts 267°
2026-05-04 08:20 49.29076 -123.57638 35889 ft 484 kts 277°
2026-05-04 08:21 49.28813 -123.62833 35884 ft 498 kts 264°
2026-05-04 08:21 49.27751 -123.67955 35885 ft 512 kts 249°
2026-05-04 08:21 49.25841 -123.72625 35869 ft 524 kts 233°
2026-05-04 08:21 49.23204 -123.76528 35891 ft 532 kts 219°
2026-05-04 08:22 49.20069 -123.79402 35851 ft 532 kts 202°
2026-05-04 08:22 49.16554 -123.81059 35902 ft 526 kts 193°
2026-05-04 08:24 48.96725 -123.64131 35870 ft 479 kts 107°
2026-05-04 08:24 48.95733 -123.59441 35896 ft 466 kts 94°
2026-05-04 08:24 48.95431 -123.54594 35885 ft 456 kts 82°
2026-05-04 08:24 48.95753 -123.49847 35892 ft 447 kts 72°
2026-05-04 08:25 48.96665 -123.45382 35883 ft 439 kts 60°
2026-05-04 08:25 48.98141 -123.41374 35884 ft 431 kts 49°
2026-05-04 08:25 49.00111 -123.37976 35880 ft 425 kts 38°
2026-05-04 08:25 49.02468 -123.35307 35882 ft 421 kts 28°
2026-05-04 08:27 49.23299 -123.43679 35899 ft 446 kts 312°
2026-05-04 08:28 49.27019 -123.51278 35889 ft 446 kts 314°
2026-05-04 08:28 49.30657 -123.59007 35868 ft 455 kts 301°
2026-05-04 08:29 49.31680 -123.63657 35891 ft 469 kts 288°
2026-05-04 08:29 49.32029 -123.68617 35889 ft 481 kts 276°
2026-05-04 08:29 49.31715 -123.73843 35887 ft 493 kts 263°
2026-05-04 08:31 49.13434 -123.90519 35888 ft 519 kts 157°
2026-05-04 08:33 48.97043 -123.64478 35863 ft 481 kts 110°
2026-05-04 08:33 48.95904 -123.59816 35895 ft 463 kts 94°
2026-05-04 08:35 49.05019 -123.33684 35886 ft 417 kts 19°
2026-05-04 08:35 49.07798 -123.32580 35883 ft 418 kts
2026-05-04 08:35 49.13608 -123.32986 35883 ft 424 kts 348°
2026-05-04 08:37 49.26956 -123.51153 35888 ft 448 kts 314°
2026-05-04 08:37 49.28865 -123.54925 35877 ft 448 kts 314°
2026-05-04 08:37 49.30621 -123.58889 35866 ft 455 kts 302°
2026-05-04 08:38 49.31672 -123.63536 35890 ft 469 kts 288°
2026-05-04 08:38 49.32043 -123.68568 35883 ft 481 kts 276°
2026-05-04 08:38 49.31753 -123.73736 35886 ft 493 kts 264°
2026-05-04 08:40 49.12454 -123.90223 35897 ft 516 kts 153°
2026-05-04 08:40 49.09269 -123.87758 35904 ft 508 kts 141°
2026-05-04 08:40 49.06544 -123.84409 35896 ft 497 kts 126°
2026-05-04 08:41 49.04439 -123.80331 35910 ft 487 kts 119°
2026-05-04 08:41 49.00469 -123.71975 35897 ft 491 kts 121°
2026-05-04 08:42 48.96551 -123.63552 35868 ft 475 kts 106°
2026-05-04 08:42 48.95622 -123.58833 35892 ft 460 kts 91°
2026-05-04 08:42 48.95468 -123.54043 35898 ft 449 kts 79°
2026-05-04 08:43 48.96894 -123.45002 35905 ft 434 kts 59°
2026-05-04 08:43 49.00378 -123.37742 35890 ft 422 kts 38°
2026-05-04 08:43 49.02745 -123.35147 35884 ft 419 kts 27°
2026-05-04 08:44 49.05404 -123.33345 35882 ft 418 kts 17°
2026-05-04 08:46 49.25353 -123.47937 35877 ft 448 kts 313°
2026-05-04 08:46 49.29158 -123.55502 35877 ft 448 kts 314°
2026-05-04 08:46 49.30831 -123.59553 35866 ft 457 kts 299°
2026-05-04 08:47 49.31764 -123.64213 35890 ft 471 kts 286°
2026-05-04 08:47 49.32043 -123.69337 35887 ft 483 kts 275°
2026-05-04 08:47 49.31656 -123.74439 35889 ft 495 kts 262°
2026-05-04 08:47 49.30519 -123.79468 35869 ft 507 kts 248°
2026-05-04 08:48 49.28574 -123.84029 35891 ft 517 kts 232°
2026-05-04 08:48 49.25893 -123.87750 35879 ft 525 kts 216°
2026-05-04 08:48 49.22650 -123.90329 35881 ft 528 kts 199°
2026-05-04 08:48 49.19077 -123.91579 35888 ft 527 kts 183°
2026-05-04 08:49 49.15434 -123.91430 35892 ft 523 kts 167°
2026-05-04 08:50 49.00150 -123.71330 35896 ft 491 kts 121°
2026-05-04 08:50 48.98063 -123.67191 35878 ft 491 kts 121°
2026-05-04 08:51 48.96341 -123.62823 35883 ft 473 kts 103°
2026-05-04 08:51 48.95551 -123.58068 35890 ft 458 kts 89°
2026-05-04 08:51 48.95504 -123.53290 35895 ft 448 kts 78°
2026-05-04 08:51 48.96038 -123.48673 35902 ft 440 kts 68°
2026-05-04 08:52 48.98660 -123.40554 35887 ft 426 kts 47°
2026-05-04 08:52 49.00704 -123.37324 35887 ft 421 kts 36°
2026-05-04 08:52 49.03123 -123.34839 35887 ft 418 kts 26°
2026-05-04 08:53 49.05808 -123.33160 35882 ft 417 kts 15°
2026-05-04 08:54 49.23790 -123.44703 35894 ft 448 kts 312°
2026-05-04 08:55 49.27539 -123.52309 35892 ft 448 kts 314°
2026-05-04 08:55 49.31008 -123.60189 35877 ft 459 kts 297°
2026-05-04 08:57 49.22124 -123.90635 35893 ft 528 kts 197°
2026-05-04 09:01 48.97250 -123.43828 35890 ft 432 kts 56°
2026-05-04 09:01 48.98873 -123.40098 35882 ft 425 kts 45°
2026-05-04 09:01 49.00967 -123.36965 35879 ft 421 kts 35°
2026-05-04 09:01 49.03423 -123.34580 35883 ft 418 kts 24°
2026-05-04 09:02 49.06130 -123.33003 35885 ft 417 kts 14°
2026-05-04 09:02 49.11924 -123.32423 35882 ft 422 kts 354°
2026-05-04 09:02 49.14786 -123.33482 35879 ft 427 kts 343°
2026-05-04 09:03 49.17516 -123.35364 35895 ft 432 kts 336°
2026-05-04 09:03 49.22156 -123.41225 35865 ft 447 kts 312°
2026-05-04 09:04 49.25844 -123.48928 35895 ft 448 kts 314°
2026-05-04 09:04 49.29644 -123.56479 35877 ft 447 kts 311°
2026-05-04 09:04 49.31139 -123.60717 35893 ft 461 kts 296°
2026-05-04 09:05 49.31905 -123.65565 35878 ft 474 kts 283°
2026-05-04 09:05 49.32010 -123.70672 35891 ft 486 kts 271°
2026-05-04 09:05 49.31434 -123.75823 35878 ft 498 kts 259°
2026-05-04 09:05 49.30080 -123.80773 35879 ft 510 kts 244°
2026-05-04 09:06 49.27926 -123.85146 35890 ft 520 kts 227°
2026-05-04 09:07 49.05628 -123.82871 35887 ft 491 kts 121°
2026-05-04 09:08 49.03632 -123.78677 35904 ft 488 kts 118°
2026-05-04 09:08 48.99597 -123.70302 35898 ft 492 kts 121°
2026-05-04 09:09 48.96039 -123.61678 35903 ft 468 kts 99°
2026-05-04 09:09 48.95453 -123.56887 35892 ft 455 kts 86°
2026-05-04 09:09 48.95559 -123.52129 35878 ft 446 kts 75°
2026-05-04 09:10 48.97399 -123.43404 35891 ft 431 kts 55°
2026-05-04 09:10 48.99098 -123.39688 35887 ft 425 kts 44°
2026-05-04 09:10 49.01245 -123.36636 35884 ft 420 kts 33°
2026-05-04 09:11 49.06481 -123.32865 35886 ft 418 kts 13°
2026-05-04 09:11 49.12272 -123.32502 35886 ft 422 kts 353°
2026-05-04 09:11 49.15120 -123.33671 35882 ft 428 kts 342°
2026-05-04 09:12 49.17825 -123.35625 35901 ft 432 kts 335°
2026-05-04 09:12 49.20335 -123.38206 35886 ft 440 kts 324°
2026-05-04 09:14 49.31949 -123.66138 35878 ft 475 kts 282°
2026-05-04 09:14 49.31981 -123.71266 35896 ft 487 kts 270°
2026-05-04 09:14 49.31319 -123.76424 35877 ft 500 kts 257°
2026-05-04 09:15 49.28473 -123.84251 35892 ft 518 kts 231°
2026-05-04 09:15 49.25763 -123.87932 35871 ft 525 kts 215°
2026-05-04 09:15 49.22502 -123.90459 35892 ft 528 kts 198°
2026-05-04 09:15 49.18917 -123.91658 35891 ft 527 kts 182°
2026-05-04 09:17 48.97979 -123.67140 35874 ft 490 kts 120°
2026-05-04 09:18 48.96282 -123.62757 35893 ft 472 kts 103°
2026-05-04 09:18 48.95509 -123.57992 35889 ft 458 kts 89°
2026-05-04 09:18 48.95475 -123.53210 35897 ft 448 kts 78°
2026-05-04 09:18 48.96019 -123.48598 35902 ft 440 kts 68°
2026-05-04 09:19 48.97093 -123.44286 35895 ft 433 kts 57°
2026-05-04 09:19 48.98683 -123.40454 35897 ft 426 kts 46°
2026-05-04 09:19 49.03163 -123.34789 35890 ft 418 kts 25°
2026-05-04 09:20 49.08669 -123.32320 35891 ft 418 kts
2026-05-04 09:20 49.14461 -123.33321 35887 ft 426 kts 345°
2026-05-04 09:21 49.19769 -123.37533 35891 ft 437 kts 328°
2026-05-04 09:21 49.21959 -123.40825 35869 ft 447 kts 313°
2026-05-04 09:21 49.23780 -123.44680 35896 ft 448 kts 312°
2026-05-04 09:22 49.27530 -123.52289 35881 ft 447 kts 314°
2026-05-04 09:22 49.31009 -123.60209 35876 ft 459 kts 297°
2026-05-04 09:23 49.31849 -123.65003 35883 ft 473 kts 284°
2026-05-04 09:23 49.32032 -123.70024 35893 ft 484 kts 273°
2026-05-04 09:23 49.31547 -123.75185 35872 ft 496 kts 261°
2026-05-04 09:23 49.30274 -123.80239 35874 ft 509 kts 245°
2026-05-04 09:25 49.08427 -123.86958 35894 ft 507 kts 138°
2026-05-04 09:25 49.05881 -123.83364 35905 ft 493 kts 122°
2026-05-04 09:26 49.01878 -123.74962 35883 ft 490 kts 120°
2026-05-04 09:26 48.97751 -123.66658 35874 ft 489 kts 119°
2026-05-04 09:27 48.96156 -123.62217 35895 ft 471 kts 101°
2026-05-04 09:27 48.95479 -123.57439 35875 ft 457 kts 87°
2026-05-04 09:27 48.96122 -123.48082 35895 ft 439 kts 67°
2026-05-04 09:28 48.97263 -123.43802 35896 ft 432 kts 56°
2026-05-04 09:28 48.98889 -123.40077 35895 ft 426 kts 45°
2026-05-04 09:28 49.00989 -123.36950 35886 ft 421 kts 34°
2026-05-04 09:28 49.03448 -123.34574 35892 ft 418 kts 24°
2026-05-04 09:29 49.09024 -123.32283 35885 ft 418 kts
2026-05-04 09:29 49.14804 -123.33505 35888 ft 426 kts 343°
2026-05-04 09:30 49.20064 -123.37878 35886 ft 438 kts 326°
2026-05-04 09:30 49.22182 -123.41278 35867 ft 446 kts 312°
2026-05-04 09:30 49.24000 -123.45136 35879 ft 447 kts 313°
2026-05-04 09:31 49.27761 -123.52747 35885 ft 447 kts 314°
2026-05-04 09:31 49.31133 -123.60702 35896 ft 460 kts 296°
2026-05-04 09:32 49.31905 -123.65594 35878 ft 474 kts 283°
2026-05-04 09:32 49.32008 -123.70702 35898 ft 486 kts 272°
2026-05-04 09:34 49.14454 -123.91204 35893 ft 522 kts 163°
2026-05-04 09:34 49.11107 -123.89392 35907 ft 514 kts 148°
2026-05-04 09:34 49.08072 -123.86559 35891 ft 506 kts 136°
2026-05-04 09:34 49.05604 -123.82846 35901 ft 491 kts 121°
2026-05-04 09:35 49.01619 -123.74426 35891 ft 491 kts 120°
2026-05-04 09:35 48.97498 -123.66121 35866 ft 487 kts 117°
2026-05-04 09:37 49.01289 -123.36612 35886 ft 420 kts 33°
2026-05-04 09:37 49.03784 -123.34337 35889 ft 417 kts 23°
2026-05-04 09:38 49.09390 -123.32262 35884 ft 419 kts
2026-05-04 09:38 49.15155 -123.33709 35888 ft 427 kts 342°
2026-05-04 09:39 49.20364 -123.38252 35886 ft 439 kts 324°
2026-05-04 09:39 49.22413 -123.41768 35872 ft 447 kts 312°
2026-05-04 09:39 49.24234 -123.45633 35871 ft 448 kts 313°
2026-05-04 09:40 49.27977 -123.53173 35884 ft 447 kts 314°
2026-05-04 09:40 49.31266 -123.61283 35897 ft 462 kts 294°
2026-05-04 09:41 49.31949 -123.66170 35876 ft 475 kts 282°
2026-05-04 09:42 49.17655 -123.91762 35890 ft 527 kts 177°
2026-05-04 09:43 49.14087 -123.91099 35887 ft 521 kts 161°
2026-05-04 09:43 49.10734 -123.89139 35904 ft 513 kts 147°
2026-05-04 09:43 49.07752 -123.86216 35883 ft 505 kts 134°
2026-05-04 09:43 49.05362 -123.82425 35899 ft 490 kts 120°
2026-05-04 09:44 49.01382 -123.73993 35883 ft 491 kts 120°
2026-05-04 09:46 48.99351 -123.39245 35886 ft 424 kts 43°
2026-05-04 09:46 49.01550 -123.36295 35891 ft 420 kts 32°
2026-05-04 09:46 49.04078 -123.34114 35884 ft 417 kts 22°
2026-05-04 09:47 49.09715 -123.32237 35887 ft 419 kts
2026-05-04 09:49 49.26280 -123.49806 35899 ft 447 kts 314°
2026-05-04 09:49 49.28184 -123.53582 35885 ft 447 kts 314°
2026-05-04 09:51 49.27342 -123.86039 35878 ft 522 kts 224°
2026-05-04 09:51 49.24398 -123.89203 35885 ft 527 kts 208°
2026-05-04 09:51 49.20962 -123.91172 35893 ft 529 kts 192°
2026-05-04 09:51 49.17315 -123.91761 35893 ft 526 kts 175°
2026-05-04 09:52 49.13713 -123.90953 35888 ft 520 kts 159°
2026-05-04 09:52 49.10391 -123.88870 35907 ft 513 kts 146°
2026-05-04 09:52 49.07455 -123.85846 35880 ft 504 kts 132°
2026-05-04 09:52 49.05134 -123.81964 35901 ft 490 kts 120°
2026-05-04 09:53 49.03160 -123.77746 35882 ft 490 kts 119°
2026-05-04 09:53 48.99091 -123.69376 35893 ft 493 kts 121°
2026-05-04 09:54 48.95812 -123.60585 35900 ft 466 kts 96°
2026-05-04 09:54 48.95406 -123.55779 35895 ft 453 kts 83°
2026-05-04 09:54 48.95650 -123.51047 35881 ft 444 kts 73°
2026-05-04 09:55 48.97747 -123.42479 35891 ft 430 kts 52°
2026-05-04 09:55 48.99561 -123.38913 35893 ft 423 kts 41°
2026-05-04 09:55 49.01804 -123.36035 35895 ft 419 kts 31°
2026-05-04 09:56 49.07136 -123.32661 35886 ft 417 kts 11°
2026-05-04 09:56 49.12931 -123.32706 35890 ft 422 kts 351°
2026-05-04 09:56 49.15744 -123.34075 35891 ft 428 kts 340°
2026-05-04 09:57 49.18376 -123.36129 35900 ft 432 kts 333°
2026-05-04 09:57 49.20819 -123.38865 35881 ft 441 kts 321°
2026-05-04 09:57 49.22773 -123.42534 35897 ft 447 kts 312°
2026-05-04 09:58 49.26467 -123.50176 35897 ft 447 kts 314°
2026-05-04 09:58 49.30214 -123.57771 35865 ft 450 kts 306°
2026-05-04 10:00 49.25159 -123.88581 35881 ft 527 kts 212°
2026-05-04 10:00 49.21812 -123.90867 35892 ft 529 kts 195°
2026-05-04 10:02 49.01626 -123.74613 35878 ft 491 kts 120°
2026-05-04 10:04 48.97337 -123.43473 35887 ft 432 kts 55°
2026-05-04 10:04 48.99031 -123.39757 35886 ft 425 kts 44°
2026-05-04 10:04 49.01173 -123.36696 35888 ft 420 kts 33°
2026-05-04 10:05 49.06388 -123.32904 35886 ft 417 kts 13°
2026-05-04 10:05 49.12174 -123.32495 35884 ft 421 kts 353°
2026-05-04 10:05 49.15020 -123.33633 35889 ft 426 kts 342°
2026-05-04 10:06 49.17688 -123.35528 35898 ft 431 kts 335°
2026-05-04 10:06 49.22296 -123.41518 35872 ft 447 kts 312°
2026-05-04 10:08 49.31924 -123.65879 35880 ft 474 kts 283°
2026-05-04 10:08 49.31997 -123.70991 35891 ft 486 kts 271°
2026-05-04 10:08 49.31381 -123.76147 35877 ft 499 kts 258°
2026-05-04 10:08 49.29986 -123.81066 35870 ft 511 kts 243°
2026-05-04 10:09 49.27788 -123.85403 35880 ft 521 kts 227°
2026-05-04 10:09 49.24937 -123.88759 35885 ft 527 kts 211°
2026-05-04 10:09 49.21516 -123.90971 35893 ft 529 kts 194°
2026-05-04 10:09 49.17890 -123.91782 35893 ft 527 kts 178°
2026-05-04 10:10 49.14267 -123.91195 35888 ft 522 kts 162°
2026-05-04 10:10 49.10934 -123.89327 35900 ft 514 kts 148°
2026-05-04 10:10 49.07925 -123.86464 35884 ft 506 kts 135°
2026-05-04 10:10 49.05490 -123.82724 35897 ft 491 kts 120°
2026-05-04 10:11 49.01504 -123.74293 35875 ft 491 kts 120°
2026-05-04 10:11 48.97386 -123.65978 35867 ft 486 kts 116°
2026-05-04 10:12 48.95961 -123.61434 35901 ft 468 kts 98°
2026-05-04 10:12 48.95419 -123.56632 35888 ft 456 kts 85°
2026-05-04 10:12 48.96256 -123.47318 35896 ft 439 kts 65°
2026-05-04 10:13 48.97490 -123.43115 35887 ft 431 kts 54°
2026-05-04 10:13 48.99230 -123.39452 35892 ft 425 kts 43°
2026-05-04 10:13 49.01412 -123.36455 35891 ft 420 kts 32°
2026-05-04 10:13 49.03925 -123.34229 35891 ft 417 kts 22°
2026-05-04 10:14 49.09520 -123.32256 35898 ft 418 kts
2026-05-04 10:16 49.26166 -123.49574 35889 ft 446 kts 314°
2026-05-04 10:16 49.28062 -123.53341 35884 ft 447 kts 314°
2026-05-04 10:16 49.31307 -123.61494 35897 ft 462 kts 294°
2026-05-04 10:17 49.31961 -123.66381 35881 ft 476 kts 281°
2026-05-04 10:17 49.31967 -123.71510 35897 ft 487 kts 270°
2026-05-04 10:19 49.13945 -123.91057 35884 ft 521 kts 161°
2026-05-04 10:19 49.10596 -123.89046 35902 ft 513 kts 147°
2026-05-04 10:19 49.07634 -123.86086 35875 ft 505 kts 134°
2026-05-04 10:19 49.05269 -123.82244 35900 ft 490 kts 120°
2026-05-04 10:20 49.01287 -123.73814 35892 ft 491 kts 120°
2026-05-04 10:20 48.97187 -123.65497 35868 ft 485 kts 114°
2026-05-04 10:21 48.95864 -123.60900 35901 ft 467 kts 97°
2026-05-04 10:21 48.95411 -123.56145 35892 ft 454 kts 84°
2026-05-04 10:21 48.96369 -123.46875 35893 ft 438 kts 64°
2026-05-04 10:22 48.99442 -123.39117 35893 ft 424 kts 42°
2026-05-04 10:22 49.01654 -123.36202 35896 ft 420 kts 32°
2026-05-04 10:22 49.04198 -123.34053 35897 ft 417 kts 21°
2026-05-04 10:23 49.06960 -123.32725 35898 ft 417 kts 11°
2026-05-04 10:25 49.26376 -123.49999 35896 ft 446 kts 314°
2026-05-04 10:25 49.30133 -123.57573 35867 ft 449 kts 307°
2026-05-04 10:25 49.31400 -123.61954 35898 ft 464 kts 292°
2026-05-04 10:26 49.31990 -123.66879 35876 ft 477 kts 280°
2026-05-04 10:26 49.31933 -123.72005 35882 ft 488 kts 269°
2026-05-04 10:26 49.31168 -123.77148 35872 ft 501 kts 255°
2026-05-04 10:26 49.29608 -123.81988 35871 ft 513 kts 240°
2026-05-04 10:27 49.27260 -123.86161 35883 ft 522 kts 224°
2026-05-04 10:27 49.24256 -123.89325 35886 ft 528 kts 207°
2026-05-04 10:27 49.20807 -123.91238 35890 ft 529 kts 191°
2026-05-04 10:27 49.17158 -123.91768 35890 ft 526 kts 175°
2026-05-04 10:28 49.13558 -123.90902 35885 ft 520 kts 159°
2026-05-04 10:28 49.10258 -123.88778 35902 ft 512 kts 146°
2026-05-04 10:28 49.07343 -123.85721 35886 ft 503 kts 132°
2026-05-04 10:28 49.05054 -123.81809 35899 ft 489 kts 119°
2026-05-04 10:29 49.03108 -123.77641 35899 ft 489 kts 119°
2026-05-04 10:29 48.99034 -123.69292 35894 ft 492 kts 121°
2026-05-04 10:30 48.95787 -123.60479 35898 ft 465 kts 96°
2026-05-04 10:30 48.95401 -123.55661 35896 ft 453 kts 83°
2026-05-04 10:30 48.95660 -123.50931 35879 ft 445 kts 73°
2026-05-04 10:31 48.97808 -123.42331 35893 ft 430 kts 52°
2026-05-04 10:31 48.99643 -123.38789 35890 ft 424 kts 41°
2026-05-04 10:32 49.15819 -123.34130 35900 ft 428 kts 340°
2026-05-04 10:33 49.20912 -123.39002 35890 ft 442 kts 321°
2026-05-04 10:33 49.24677 -123.46551 35872 ft 447 kts 313°
2026-05-04 10:34 49.28451 -123.54108 35880 ft 447 kts 314°
2026-05-04 10:34 49.31495 -123.62469 35898 ft 465 kts 291°
2026-05-04 10:35 49.32014 -123.67422 35880 ft 478 kts 279°
2026-05-04 10:35 49.31884 -123.72571 35883 ft 490 kts 267°
2026-05-04 10:35 49.31053 -123.77623 35870 ft 502 kts 254°
2026-05-04 10:35 49.29393 -123.82466 35864 ft 514 kts 238°
2026-05-04 10:36 49.27000 -123.86501 35875 ft 523 kts 222°
2026-05-04 10:36 49.23941 -123.89556 35885 ft 528 kts 206°
2026-05-04 10:36 49.20468 -123.91337 35889 ft 529 kts 189°
2026-05-04 10:36 49.16813 -123.91733 35887 ft 526 kts 173°
2026-05-04 10:37 49.13237 -123.90738 35888 ft 520 kts 157°
2026-05-04 10:37 49.09957 -123.88504 35899 ft 512 kts 144°
2026-05-04 10:37 49.07094 -123.85361 35875 ft 502 kts 130°
2026-05-04 10:37 49.04863 -123.81372 35897 ft 488 kts 119°
2026-05-04 10:39 48.95413 -123.55179 35897 ft 453 kts 82°
2026-05-04 10:39 48.95725 -123.50466 35894 ft 444 kts 72°
2026-05-04 10:40 48.97978 -123.41943 35898 ft 430 kts 51°
2026-05-04 10:40 48.99860 -123.38469 35890 ft 423 kts 40°
2026-05-04 10:40 49.02153 -123.35700 35898 ft 419 kts 30°
2026-05-04 10:40 49.04758 -123.33711 35894 ft 417 kts 19°
2026-05-04 10:41 49.07559 -123.32555 35900 ft 417 kts
2026-05-04 10:41 49.13318 -123.32846 35898 ft 423 kts 349°
2026-05-04 10:42 49.18754 -123.36490 35905 ft 433 kts 332°
2026-05-04 10:42 49.21146 -123.39357 35885 ft 443 kts 318°
2026-05-04 10:42 49.23044 -123.43109 35903 ft 446 kts 312°
2026-05-04 10:43 49.26752 -123.50744 35896 ft 446 kts 314°
2026-05-04 10:44 49.29850 -123.81392 35865 ft 512 kts 242°
2026-05-04 10:45 49.27600 -123.85663 35880 ft 521 kts 226°
2026-05-04 10:45 49.24661 -123.88978 35877 ft 527 kts 209°
2026-05-04 10:45 49.21255 -123.91053 35888 ft 529 kts 193°
2026-05-04 10:45 49.17622 -123.91759 35886 ft 527 kts 177°
2026-05-04 10:46 49.14007 -123.91066 35884 ft 521 kts 161°
2026-05-04 10:46 49.10659 -123.89078 35903 ft 514 kts 147°
2026-05-04 10:46 49.07719 -123.86171 35882 ft 505 kts 134°
2026-05-04 10:46 49.05332 -123.82349 35881 ft 491 kts 120°
2026-05-04 10:47 49.03354 -123.78138 35898 ft 489 kts 119°
2026-05-04 10:47 48.99296 -123.69768 35895 ft 492 kts 121°
2026-05-04 10:49 49.01633 -123.36240 35892 ft 420 kts 32°
2026-05-04 10:49 49.04174 -123.34080 35891 ft 417 kts 21°
2026-05-04 10:50 49.06934 -123.32742 35894 ft 417 kts 11°
2026-05-04 10:51 49.24467 -123.46111 35881 ft 447 kts 313°
2026-05-04 10:52 49.26336 -123.49915 35897 ft 446 kts 314°
2026-05-04 10:52 49.30098 -123.57493 35864 ft 449 kts 308°
2026-05-04 10:54 49.24319 -123.89273 35884 ft 528 kts 207°
2026-05-04 10:54 49.20871 -123.91212 35890 ft 529 kts 191°
2026-05-04 10:56 49.01108 -123.73451 35891 ft 491 kts 120°
2026-05-04 10:56 48.99065 -123.69346 35894 ft 492 kts 121°
2026-05-04 10:57 48.95805 -123.60536 35898 ft 465 kts 96°
2026-05-04 10:57 48.95407 -123.55733 35897 ft 453 kts 83°
2026-05-04 10:57 48.95655 -123.50990 35879 ft 445 kts 73°
2026-05-04 10:58 48.97786 -123.42381 35889 ft 430 kts 52°
2026-05-04 10:58 48.99617 -123.38829 35899 ft 424 kts 41°
2026-05-04 10:58 49.01867 -123.35977 35891 ft 420 kts 31°
2026-05-04 10:58 49.04438 -123.33897 35897 ft 417 kts 20°
2026-05-04 10:59 49.07219 -123.32643 35893 ft 417 kts 10°
2026-05-04 10:59 49.13023 -123.32742 35900 ft 423 kts 350°
2026-05-04 11:00 49.18456 -123.36208 35905 ft 432 kts 333°
2026-05-04 11:01 49.31477 -123.62377 35897 ft 465 kts 291°
2026-05-04 11:02 49.32010 -123.67320 35877 ft 477 kts 279°
2026-05-04 11:02 49.31895 -123.72463 35885 ft 489 kts 268°
2026-05-04 11:05 48.96877 -123.64727 35869 ft 481 kts 111°
2026-05-04 11:06 48.95728 -123.60060 35897 ft 465 kts 95°
2026-05-04 11:06 48.95399 -123.55251 35897 ft 453 kts 82°
2026-05-04 11:06 48.96549 -123.46092 35908 ft 437 kts 62°
2026-05-04 11:08 49.13307 -123.32837 35898 ft 423 kts 349°
2026-05-04 11:10 49.28625 -123.54451 35882 ft 447 kts 314°
2026-05-04 11:12 49.26717 -123.86822 35874 ft 523 kts 220°
2026-05-04 11:12 49.23612 -123.89751 35888 ft 527 kts 204°
2026-05-04 11:12 49.20101 -123.91398 35888 ft 528 kts 188°
2026-05-04 11:12 49.16447 -123.91647 35889 ft 525 kts 172°
2026-05-04 11:13 49.12892 -123.90509 35888 ft 519 kts 156°
2026-05-04 11:13 49.09658 -123.88174 35900 ft 511 kts 143°
2026-05-04 11:13 49.06851 -123.84935 35883 ft 501 kts 129°
2026-05-04 11:13 49.04667 -123.80893 35905 ft 490 kts 119°
2026-05-04 11:14 49.00699 -123.72509 35897 ft 492 kts 121°
2026-05-04 11:16 49.00204 -123.38033 35890 ft 424 kts 38°
2026-05-04 11:16 49.05155 -123.33521 35902 ft 418 kts 18°
2026-05-04 11:17 49.10897 -123.32313 35898 ft 420 kts 358°
2026-05-04 11:19 49.27070 -123.51377 35888 ft 446 kts 314°
2026-05-04 11:19 49.28974 -123.55140 35885 ft 447 kts 314°
2026-05-04 11:19 49.30689 -123.59116 35871 ft 455 kts 301°
2026-05-04 11:19 49.31696 -123.63777 35883 ft 468 kts 288°
2026-05-04 11:20 49.32039 -123.68731 35888 ft 480 kts 276°
2026-05-04 11:20 49.31736 -123.73872 35878 ft 492 kts 264°
2026-05-04 11:20 49.30693 -123.78924 35871 ft 504 kts 250°
2026-05-04 11:20 49.28843 -123.83558 35873 ft 515 kts 234°
2026-05-04 11:22 49.06488 -123.84412 35889 ft 500 kts 127°
2026-05-04 11:22 49.04373 -123.80296 35905 ft 490 kts 119°
2026-05-04 11:23 49.00364 -123.71865 35897 ft 493 kts 121°
2026-05-04 11:24 48.96967 -123.44756 35902 ft 436 kts 58°
2026-05-04 11:25 48.98521 -123.40830 35895 ft 429 kts 47°
2026-05-04 11:25 49.02952 -123.35004 35903 ft 420 kts 26°
2026-05-04 11:26 49.08483 -123.32380 35896 ft 419 kts
2026-05-04 11:27 49.25488 -123.48202 35880 ft 446 kts 313°
2026-05-04 11:28 49.29277 -123.55739 35882 ft 446 kts 313°
2026-05-04 11:28 49.30895 -123.59820 35872 ft 456 kts 298°
2026-05-04 11:28 49.31788 -123.64542 35890 ft 469 kts 285°
2026-05-04 11:29 49.32029 -123.69591 35883 ft 481 kts 274°
2026-05-04 11:29 49.31604 -123.74740 35878 ft 493 kts 262°
2026-05-04 11:29 49.30425 -123.79733 35871 ft 505 kts 247°
2026-05-04 11:29 49.28442 -123.84243 35877 ft 516 kts 231°
2026-05-04 11:31 49.06878 -123.84904 35883 ft 502 kts 129°